GFSWCAN_prec_precacc24_138.txt.gz
Total_Precipitation_Accumulation
0.72 0.83 0.68 0.50 0.32 0.25 0.33 0.45 0.41 0.38 0.36 0.35 0.31 0.29 0.30 0.36 0.53 0.56 0.31 0.28 0.33 0.36 0.16 0.21 0.15 0.03 0.02 0.01 0.01 0.01 0.03 0.04 0.03 0.05 0.08 0.06 0.07 0.08 0.11 0.12 0.02 0.05 0.09 0.09 0.08 0.18 0.08 0.00 0.00 0.01 0.01 0.00 0.00 0.00
1.01 0.87 0.67 0.50 0.38 0.36 0.45 0.65 0.56 0.48 0.45 0.42 0.34 0.30 0.25 0.30 0.46 0.65 0.38 0.32 0.31 0.45 0.20 0.13 0.27 0.13 0.03 0.00 0.01 0.01 0.00 0.00 0.00 0.02 0.05 0.08 0.05 0.03 0.04 0.12 0.06 0.04 0.03 0.12 0.08 0.06 0.01 0.00 0.00 0.00 0.00 0.00 0.00 0.00
1.00 1.07 0.93 0.63 0.52 0.46 0.55 0.71 0.60 0.49 0.39 0.38 0.34 0.29 0.24 0.26 0.45 0.65 0.39 0.32 0.42 0.61 0.40 0.12 0.23 0.16 0.14 0.09 0.02 0.01 0.01 0.01 0.00 0.01 0.06 0.07 0.04 0.01 0.03 0.06 0.04 0.02 0.01 0.01 0.01 0.01 0.01 0.00 0.00 0.00 0.00 0.00 0.00 0.00
0.79 0.85 0.74 0.62 0.57 0.58 0.48 0.59 0.52 0.37 0.34 0.35 0.37 0.28 0.26 0.28 0.50 0.59 0.37 0.30 0.29 0.42 0.55 0.19 0.04 0.10 0.08 0.15 0.08 0.03 0.01 0.00 0.02 0.02 0.04 0.06 0.04 0.01 0.01 0.04 0.04 0.01 0.01 0.03 0.03 0.01 0.01 0.01 0.00 0.00 0.00 0.00 0.00 0.00
0.47 0.45 0.51 0.49 0.39 0.43 0.37 0.48 0.41 0.33 0.33 0.31 0.41 0.29 0.28 0.36 0.67 0.52 0.25 0.41 0.18 0.24 0.37 0.15 0.03 0.03 0.05 0.08 0.14 0.09 0.03 0.02 0.02 0.04 0.04 0.04 0.02 0.02 0.03 0.02 0.01 0.01 0.01 0.01 0.02 0.00 0.00 0.00 0.01 0.00 0.00 0.00 0.00 0.00
0.26 0.30 0.32 0.37 0.34 0.36 0.31 0.36 0.31 0.30 0.29 0.25 0.46 0.31 0.30 0.50 0.72 0.55 0.75 0.80 0.51 0.13 0.47 0.33 0.11 0.02 0.04 0.08 0.14 0.27 0.19 0.11 0.10 0.08 0.04 0.02 0.01 0.02 0.05 0.03 0.00 0.00 0.00 0.00 0.00 0.00 0.00 0.00 0.00 0.00 0.00 0.00 0.00 0.00
0.23 0.19 0.24 0.34 0.28 0.26 0.24 0.29 0.24 0.25 0.24 0.24 0.47 0.28 0.35 0.52 0.42 0.38 0.35 0.34 0.37 0.28 0.25 0.30 0.22 0.08 0.04 0.09 0.11 0.09 0.19 0.30 0.20 0.14 0.04 0.01 0.00 0.03 0.06 0.01 0.00 0.00 0.00 0.00 0.00 0.00 0.01 0.00 0.01 0.00 0.00 0.00 0.00 0.00
0.16 0.18 0.25 0.28 0.20 0.21 0.22 0.21 0.19 0.21 0.19 0.41 0.37 0.36 0.42 0.32 0.31 0.22 0.08 0.04 0.18 0.36 0.19 0.15 0.14 0.37 0.14 0.20 0.28 0.10 0.16 0.31 0.25 0.16 0.11 0.03 0.02 0.05 0.03 0.00 0.00 0.00 0.00 0.00 0.00 0.00 0.00 0.00 0.00 0.01 0.00 0.00 0.00 0.00
0.14 0.17 0.21 0.18 0.19 0.20 0.18 0.16 0.19 0.17 0.25 0.42 0.41 0.44 0.46 0.33 0.40 0.23 0.07 0.11 0.15 0.30 0.20 0.06 0.05 0.21 0.30 0.14 0.30 0.36 0.15 0.23 0.26 0.13 0.04 0.02 0.05 0.02 0.00 0.00 0.00 0.00 0.00 0.00 0.00 0.00 0.00 0.00 0.00 0.02 0.02 0.02 0.02 0.01
0.11 0.11 0.13 0.15 0.18 0.17 0.19 0.23 0.21 0.21 0.31 0.36 0.39 0.53 0.66 0.24 0.31 0.38 0.50 0.54 0.45 0.33 0.18 0.06 0.01 0.02 0.19 0.35 0.20 0.32 0.17 0.09 0.08 0.08 0.02 0.02 0.01 0.00 0.00 0.00 0.00 0.00 0.00 0.00 0.00 0.00 0.00 0.00 0.01 0.03 0.04 0.05 0.06 0.03
0.13 0.14 0.15 0.15 0.15 0.18 0.20 0.19 0.19 0.22 0.23 0.18 0.28 0.34 0.14 0.26 0.43 0.60 0.63 0.32 0.31 0.22 0.04 0.02 0.02 0.04 0.02 0.14 0.24 0.11 0.09 0.03 0.02 0.04 0.02 0.02 0.01 0.00 0.00 0.00 0.00 0.00 0.00 0.00 0.00 0.00 0.00 0.00 0.00 0.05 0.09 0.09 0.08 0.06
0.11 0.11 0.12 0.14 0.15 0.14 0.12 0.11 0.10 0.06 0.06 0.04 0.11 0.12 0.24 0.34 0.33 0.49 0.30 0.07 0.12 0.05 0.01 0.01 0.02 0.06 0.04 0.07 0.18 0.12 0.02 0.01 0.04 0.02 0.03 0.02 0.02 0.00 0.00 0.00 0.00 0.00 0.00 0.00 0.00 0.00 0.00 0.00 0.01 0.04 0.08 0.08 0.08 0.11
0.07 0.06 0.05 0.04 0.02 0.02 0.01 0.00 0.01 0.02 0.01 0.01 0.02 0.07 0.06 0.16 0.13 0.18 0.07 0.02 0.02 0.01 0.01 0.02 0.08 0.07 0.07 0.07 0.09 0.07 0.01 0.02 0.02 0.01 0.03 0.03 0.00 0.00 0.00 0.00 0.00 0.00 0.00 0.00 0.00 0.00 0.01 0.04 0.07 0.08 0.08 0.08 0.12 0.17
0.04 0.04 0.04 0.03 0.01 0.01 0.01 0.01 0.02 0.01 0.02 0.02 0.02 0.01 0.01 0.02 0.03 0.05 0.02 0.00 0.01 0.01 0.02 0.02 0.02 0.05 0.05 0.02 0.03 0.02 0.01 0.00 0.01 0.02 0.04 0.02 0.00 0.00 0.02 0.01 0.00 0.00 0.00 0.00 0.00 0.00 0.03 0.06 0.11 0.11 0.08 0.11 0.13 0.12
0.02 0.02 0.02 0.04 0.04 0.06 0.04 0.02 0.01 0.02 0.02 0.00 0.00 0.01 0.04 0.06 0.05 0.02 0.01 0.01 0.03 0.02 0.01 0.01 0.01 0.02 0.01 0.01 0.00 0.00 0.00 0.00 0.01 0.05 0.04 0.00 0.00 0.01 0.01 0.01 0.00 0.00 0.00 0.00 0.01 0.02 0.04 0.07 0.10 0.12 0.12 0.11 0.08 0.07
0.01 0.01 0.04 0.08 0.08 0.04 0.02 0.01 0.00 0.00 0.00 0.00 0.03 0.09 0.10 0.10 0.11 0.06 0.02 0.04 0.04 0.02 0.01 0.00 0.00 0.00 0.00 0.00 0.00 0.00 0.00 0.03 0.04 0.01 0.00 0.01 0.00 0.01 0.02 0.01 0.01 0.00 0.00 0.00 0.01 0.03 0.04 0.06 0.08 0.10 0.13 0.13 0.11 0.08
0.00 0.01 0.01 0.01 0.01 0.01 0.01 0.00 0.00 0.00 0.00 0.03 0.11 0.14 0.16 0.20 0.19 0.07 0.02 0.03 0.03 0.02 0.00 0.00 0.00 0.00 0.00 0.00 0.00 0.01 0.03 0.03 0.01 0.01 0.01 0.01 0.00 0.01 0.03 0.03 0.03 0.02 0.02 0.01 0.01 0.02 0.03 0.05 0.07 0.08 0.08 0.11 0.11 0.11
0.00 0.00 0.00 0.00 0.00 0.00 0.00 0.00 0.00 0.00 0.06 0.14 0.23 0.19 0.07 0.08 0.05 0.02 0.02 0.01 0.01 0.00 0.00 0.00 0.00 0.00 0.02 0.03 0.04 0.02 0.01 0.01 0.01 0.00 0.01 0.01 0.01 0.01 0.01 0.03 0.05 0.05 0.04 0.03 0.02 0.01 0.01 0.02 0.02 0.03 0.05 0.07 0.07 0.07
0.00 0.00 0.00 0.00 0.00 0.00 0.00 0.00 0.00 0.03 0.16 0.17 0.19 0.14 0.07 0.07 0.06 0.02 0.00 0.00 0.00 0.00 0.00 0.00 0.01 0.02 0.02 0.02 0.01 0.00 0.00 0.00 0.00 0.01 0.01 0.01 0.01 0.01 0.01 0.02 0.05 0.07 0.05 0.04 0.02 0.01 0.00 0.00 0.00 0.01 0.02 0.02 0.03 0.03
0.00 0.00 0.00 0.00 0.00 0.00 0.00 0.00 0.00 0.01 0.05 0.09 0.12 0.07 0.04 0.10 0.12 0.05 0.02 0.00 0.00 0.00 0.00 0.01 0.03 0.02 0.01 0.01 0.00 0.00 0.00 0.00 0.00 0.01 0.02 0.03 0.02 0.01 0.01 0.01 0.02 0.04 0.05 0.06 0.05 0.03 0.02 0.01 0.01 0.00 0.01 0.02 0.02 0.03
0.00 0.00 0.00 0.00 0.00 0.00 0.00 0.00 0.00 0.01 0.01 0.02 0.07 0.03 0.04 0.09 0.10 0.07 0.05 0.01 0.02 0.01 0.03 0.04 0.02 0.00 0.00 0.00 0.00 0.00 0.00 0.00 0.00 0.00 0.00 0.01 0.02 0.01 0.01 0.02 0.01 0.02 0.02 0.01 0.02 0.03 0.02 0.02 0.01 0.01 0.01 0.01 0.02 0.03
0.00 0.00 0.00 0.00 0.00 0.00 0.00 0.01 0.01 0.01 0.01 0.01 0.01 0.00 0.01 0.03 0.05 0.03 0.02 0.01 0.04 0.06 0.04 0.02 0.00 0.00 0.00 0.00 0.00 0.00 0.00 0.00 0.00 0.00 0.00 0.00 0.01 0.01 0.01 0.01 0.01 0.02 0.02 0.01 0.01 0.01 0.02 0.01 0.01 0.00 0.01 0.02 0.02 0.02
0.00 0.00 0.00 0.00 0.00 0.00 0.00 0.00 0.00 0.00 0.01 0.01 0.00 0.00 0.00 0.00 0.00 0.00 0.01 0.01 0.06 0.09 0.02 0.00 0.00 0.00 0.00 0.00 0.00 0.00 0.00 0.00 0.00 0.00 0.00 0.00 0.00 0.00 0.00 0.00 0.00 0.01 0.01 0.01 0.01 0.01 0.01 0.01 0.01 0.01 0.03 0.03 0.02 0.03
0.00 0.00 0.00 0.00 0.00 0.00 0.00 0.01 0.00 0.00 0.00 0.00 0.00 0.00 0.00 0.00 0.00 0.01 0.02 0.03 0.06 0.06 0.02 0.00 0.00 0.00 0.00 0.00 0.00 0.00 0.00 0.00 0.00 0.00 0.00 0.00 0.00 0.00 0.00 0.00 0.00 0.00 0.00 0.00 0.01 0.01 0.02 0.03 0.02 0.03 0.03 0.04 0.03 0.04
0.00 0.00 0.00 0.00 0.00 0.00 0.01 0.01 0.01 0.00 0.00 0.01 0.00 0.01 0.00 0.00 0.00 0.01 0.01 0.05 0.05 0.03 0.02 0.01 0.00 0.00 0.00 0.00 0.00 0.00 0.00 0.00 0.00 0.00 0.01 0.00 0.01 0.01 0.02 0.02 0.02 0.03 0.02 0.02 0.02 0.02 0.02 0.03 0.05 0.05 0.06 0.06 0.06 0.07
0.00 0.00 0.00 0.00 0.00 0.00 0.01 0.01 0.01 0.00 0.00 0.00 0.01 0.00 0.00 0.00 0.00 0.02 0.02 0.04 0.03 0.03 0.03 0.02 0.00 0.00 0.00 0.00 0.00 0.00 0.00 0.00 0.00 0.00 0.01 0.01 0.01 0.02 0.03 0.03 0.05 0.06 0.07 0.05 0.03 0.04 0.05 0.06 0.07 0.08 0.11 0.11 0.08 0.06
0.00 0.00 0.00 0.00 0.00 0.00 0.00 0.01 0.01 0.00 0.00 0.00 0.01 0.00 0.00 0.00 0.02 0.03 0.04 0.04 0.02 0.03 0.02 0.01 0.01 0.00 0.00 0.00 0.01 0.00 0.00 0.00 0.00 0.01 0.01 0.01 0.01 0.02 0.02 0.03 0.03 0.02 0.02 0.07 0.07 0.04 0.04 0.06 0.09 0.11 0.12 0.11 0.08 0.05
0.01 0.01 0.01 0.01 0.01 0.01 0.01 0.01 0.01 0.02 0.04 0.04 0.01 0.01 0.01 0.02 0.07 0.05 0.04 0.04 0.02 0.02 0.02 0.01 0.00 0.00 0.00 0.00 0.00 0.01 0.01 0.02 0.01 0.00 0.00 0.00 0.01 0.01 0.02 0.04 0.02 0.01 0.02 0.05 0.09 0.10 0.09 0.08 0.08 0.08 0.07 0.08 0.11 0.11
0.00 0.00 0.00 0.00 0.01 0.01 0.02 0.04 0.07 0.06 0.05 0.04 0.04 0.08 0.04 0.02 0.04 0.04 0.04 0.03 0.03 0.02 0.02 0.02 0.03 0.02 0.02 0.01 0.01 0.01 0.01 0.02 0.01 0.01 0.01 0.01 0.01 0.03 0.05 0.06 0.06 0.05 0.06 0.10 0.17 0.16 0.13 0.10 0.08 0.08 0.08 0.09 0.10 0.10
0.01 0.00 0.00 0.00 0.00 0.02 0.04 0.04 0.04 0.03 0.02 0.01 0.01 0.02 0.02 0.03 0.04 0.04 0.03 0.03 0.04 0.04 0.05 0.04 0.03 0.03 0.03 0.03 0.03 0.03 0.05 0.06 0.05 0.05 0.04 0.02 0.01 0.03 0.03 0.03 0.03 0.05 0.05 0.04 0.09 0.16 0.13 0.12 0.13 0.12 0.10 0.10 0.09 0.07
0.00 0.00 0.01 0.01 0.01 0.02 0.02 0.01 0.01 0.01 0.01 0.01 0.01 0.01 0.03 0.04 0.05 0.03 0.02 0.03 0.03 0.03 0.03 0.05 0.05 0.05 0.06 0.06 0.04 0.03 0.04 0.04 0.02 0.02 0.02 0.01 0.01 0.02 0.03 0.03 0.04 0.04 0.06 0.06 0.07 0.07 0.07 0.08 0.07 0.07 0.07 0.06 0.06 0.05
0.01 0.02 0.03 0.03 0.04 0.02 0.00 0.00 0.00 0.01 0.02 0.02 0.02 0.03 0.04 0.03 0.04 0.04 0.02 0.02 0.03 0.04 0.07 0.06 0.10 0.14 0.09 0.08 0.08 0.08 0.05 0.04 0.04 0.03 0.03 0.03 0.04 0.04 0.03 0.04 0.05 0.04 0.04 0.05 0.05 0.05 0.05 0.04 0.05 0.05 0.04 0.04 0.04 0.04
0.01 0.01 0.01 0.01 0.01 0.01 0.01 0.01 0.01 0.02 0.02 0.04 0.04 0.06 0.07 0.04 0.06 0.04 0.03 0.02 0.03 0.05 0.06 0.07 0.08 0.10 0.11 0.10 0.10 0.11 0.11 0.12 0.09 0.08 0.07 0.06 0.06 0.06 0.06 0.05 0.04 0.03 0.02 0.02 0.03 0.03 0.03 0.03 0.03 0.03 0.03 0.02 0.02 0.02

GFSWCAN_prec_precacc24_141.txt.gz
Total_Precipitation_Accumulation
0.66 0.60 0.32 0.21 0.17 0.15 0.26 0.40 0.31 0.25 0.22 0.23 0.22 0.36 0.50 0.57 0.82 0.62 0.34 0.27 0.37 0.37 0.20 0.22 0.16 0.04 0.03 0.02 0.05 0.05 0.09 0.08 0.06 0.07 0.06 0.04 0.05 0.07 0.10 0.11 0.02 0.03 0.06 0.06 0.06 0.16 0.06 0.00 0.00 0.00 0.00 0.00 0.00 0.00
1.04 0.75 0.38 0.23 0.16 0.14 0.27 0.49 0.36 0.25 0.25 0.25 0.24 0.32 0.37 0.54 0.59 0.66 0.39 0.35 0.34 0.51 0.26 0.14 0.29 0.14 0.04 0.00 0.01 0.03 0.02 0.01 0.01 0.02 0.03 0.07 0.06 0.04 0.05 0.12 0.06 0.03 0.03 0.11 0.07 0.04 0.00 0.00 0.00 0.00 0.00 0.00 0.00 0.00
1.00 1.02 0.75 0.40 0.26 0.22 0.32 0.48 0.39 0.29 0.26 0.26 0.28 0.29 0.25 0.38 0.53 0.63 0.39 0.33 0.45 0.65 0.43 0.13 0.24 0.16 0.14 0.09 0.02 0.04 0.03 0.01 0.01 0.01 0.06 0.08 0.04 0.02 0.04 0.06 0.04 0.02 0.00 0.00 0.00 0.01 0.00 0.00 0.00 0.00 0.00 0.00 0.00 0.00
0.76 0.82 0.69 0.45 0.36 0.37 0.31 0.44 0.39 0.28 0.27 0.28 0.34 0.30 0.27 0.33 0.55 0.59 0.38 0.30 0.30 0.43 0.60 0.22 0.04 0.10 0.08 0.16 0.08 0.04 0.04 0.02 0.03 0.04 0.06 0.07 0.05 0.01 0.01 0.04 0.04 0.02 0.01 0.01 0.01 0.00 0.00 0.00 0.00 0.00 0.00 0.00 0.00 0.00
0.46 0.47 0.57 0.48 0.35 0.39 0.34 0.45 0.38 0.32 0.33 0.31 0.43 0.32 0.31 0.40 0.68 0.53 0.25 0.42 0.20 0.26 0.39 0.16 0.03 0.03 0.05 0.08 0.15 0.09 0.03 0.05 0.07 0.09 0.07 0.05 0.02 0.04 0.05 0.04 0.01 0.01 0.01 0.01 0.01 0.00 0.00 0.00 0.00 0.00 0.00 0.00 0.00 0.00
0.26 0.32 0.42 0.41 0.35 0.37 0.32 0.37 0.32 0.32 0.32 0.28 0.48 0.33 0.32 0.53 0.73 0.57 0.82 0.91 0.53 0.15 0.49 0.35 0.12 0.02 0.04 0.08 0.14 0.28 0.20 0.15 0.16 0.16 0.09 0.04 0.03 0.07 0.07 0.03 0.00 0.00 0.00 0.00 0.00 0.00 0.00 0.00 0.00 0.00 0.00 0.00 0.00 0.00
0.23 0.23 0.31 0.37 0.29 0.26 0.24 0.29 0.25 0.28 0.27 0.26 0.49 0.31 0.39 0.55 0.45 0.41 0.39 0.39 0.39 0.28 0.25 0.31 0.23 0.09 0.04 0.10 0.13 0.15 0.24 0.33 0.26 0.20 0.08 0.04 0.04 0.07 0.07 0.02 0.00 0.00 0.00 0.00 0.00 0.00 0.01 0.00 0.01 0.00 0.00 0.00 0.00 0.00
0.17 0.24 0.30 0.31 0.21 0.21 0.22 0.21 0.20 0.23 0.22 0.43 0.41 0.46 0.50 0.46 0.42 0.27 0.09 0.04 0.18 0.37 0.19 0.15 0.15 0.39 0.15 0.21 0.31 0.15 0.20 0.38 0.37 0.23 0.17 0.05 0.07 0.09 0.05 0.00 0.00 0.00 0.00 0.00 0.00 0.00 0.00 0.00 0.00 0.01 0.00 0.00 0.00 0.00
0.17 0.23 0.26 0.20 0.20 0.21 0.19 0.17 0.22 0.19 0.35 0.51 0.63 0.68 0.75 0.55 0.53 0.28 0.07 0.13 0.17 0.31 0.20 0.06 0.05 0.23 0.32 0.18 0.32 0.40 0.19 0.30 0.37 0.26 0.09 0.07 0.11 0.04 0.00 0.00 0.00 0.00 0.00 0.00 0.00 0.00 0.00 0.00 0.00 0.02 0.02 0.02 0.02 0.01
0.17 0.15 0.14 0.16 0.19 0.18 0.19 0.25 0.23 0.39 0.56 0.59 0.73 0.74 0.89 0.34 0.33 0.39 0.53 0.59 0.48 0.35 0.19 0.06 0.01 0.05 0.21 0.37 0.22 0.37 0.31 0.18 0.14 0.13 0.08 0.05 0.02 0.00 0.00 0.00 0.00 0.00 0.00 0.00 0.00 0.00 0.00 0.00 0.01 0.03 0.04 0.05 0.06 0.03
0.14 0.15 0.15 0.16 0.16 0.19 0.21 0.22 0.38 0.40 0.29 0.31 0.37 0.39 0.20 0.28 0.46 0.62 0.64 0.34 0.31 0.23 0.04 0.01 0.02 0.06 0.04 0.18 0.31 0.18 0.16 0.11 0.08 0.07 0.04 0.04 0.01 0.00 0.00 0.00 0.00 0.00 0.00 0.00 0.00 0.00 0.00 0.00 0.00 0.05 0.09 0.09 0.08 0.06
0.12 0.12 0.13 0.14 0.15 0.14 0.13 0.16 0.14 0.07 0.08 0.05 0.11 0.13 0.26 0.35 0.35 0.50 0.32 0.08 0.12 0.05 0.00 0.01 0.02 0.08 0.06 0.08 0.21 0.21 0.12 0.04 0.07 0.03 0.04 0.02 0.01 0.00 0.00 0.00 0.00 0.00 0.00 0.00 0.00 0.00 0.00 0.00 0.01 0.04 0.08 0.08 0.08 0.11
0.07 0.06 0.05 0.04 0.02 0.02 0.01 0.00 0.01 0.02 0.01 0.02 0.04 0.08 0.08 0.17 0.14 0.18 0.10 0.02 0.03 0.01 0.01 0.02 0.08 0.08 0.08 0.07 0.11 0.11 0.05 0.04 0.03 0.03 0.03 0.03 0.00 0.00 0.00 0.00 0.00 0.00 0.00 0.00 0.00 0.00 0.01 0.04 0.07 0.08 0.08 0.08 0.12 0.17
0.04 0.04 0.04 0.03 0.01 0.01 0.01 0.01 0.02 0.02 0.04 0.06 0.04 0.01 0.02 0.03 0.03 0.06 0.05 0.04 0.04 0.03 0.02 0.02 0.03 0.05 0.06 0.02 0.06 0.05 0.04 0.01 0.01 0.02 0.03 0.01 0.00 0.00 0.00 0.01 0.00 0.00 0.00 0.00 0.00 0.00 0.03 0.06 0.11 0.11 0.08 0.11 0.13 0.12
0.02 0.02 0.02 0.04 0.04 0.06 0.04 0.02 0.02 0.04 0.07 0.05 0.02 0.02 0.03 0.06 0.05 0.02 0.01 0.01 0.03 0.04 0.04 0.03 0.03 0.06 0.04 0.04 0.01 0.02 0.00 0.01 0.01 0.03 0.03 0.00 0.00 0.00 0.00 0.00 0.00 0.00 0.00 0.00 0.01 0.02 0.04 0.07 0.10 0.12 0.12 0.11 0.08 0.07
0.01 0.01 0.04 0.08 0.08 0.04 0.02 0.01 0.01 0.01 0.00 0.00 0.03 0.10 0.09 0.08 0.10 0.05 0.02 0.04 0.04 0.05 0.05 0.04 0.03 0.04 0.07 0.01 0.00 0.00 0.00 0.02 0.02 0.00 0.00 0.01 0.00 0.00 0.00 0.00 0.00 0.00 0.00 0.00 0.01 0.03 0.04 0.07 0.09 0.10 0.13 0.13 0.11 0.08
0.00 0.00 0.01 0.02 0.03 0.02 0.02 0.01 0.00 0.00 0.00 0.03 0.11 0.14 0.15 0.19 0.19 0.07 0.02 0.03 0.03 0.04 0.03 0.02 0.02 0.02 0.01 0.00 0.00 0.01 0.01 0.01 0.01 0.01 0.01 0.01 0.00 0.01 0.01 0.01 0.01 0.00 0.00 0.00 0.01 0.02 0.03 0.05 0.07 0.09 0.09 0.11 0.11 0.11
0.00 0.00 0.00 0.00 0.01 0.01 0.00 0.00 0.00 0.00 0.06 0.13 0.22 0.19 0.07 0.08 0.05 0.02 0.02 0.01 0.01 0.02 0.01 0.00 0.00 0.00 0.01 0.02 0.02 0.01 0.00 0.01 0.01 0.01 0.01 0.01 0.01 0.01 0.01 0.01 0.02 0.02 0.02 0.02 0.01 0.01 0.01 0.02 0.02 0.03 0.05 0.07 0.07 0.07
0.00 0.00 0.01 0.01 0.01 0.01 0.00 0.00 0.00 0.03 0.16 0.16 0.18 0.13 0.07 0.07 0.06 0.03 0.01 0.00 0.01 0.01 0.00 0.00 0.01 0.02 0.01 0.01 0.00 0.01 0.01 0.01 0.01 0.01 0.02 0.02 0.01 0.01 0.01 0.02 0.04 0.05 0.04 0.04 0.02 0.01 0.00 0.00 0.00 0.01 0.02 0.02 0.03 0.03
0.00 0.00 0.00 0.00 0.01 0.01 0.00 0.00 0.00 0.01 0.04 0.09 0.12 0.08 0.04 0.10 0.13 0.06 0.03 0.01 0.01 0.00 0.00 0.01 0.03 0.02 0.01 0.01 0.00 0.00 0.00 0.00 0.00 0.01 0.02 0.03 0.02 0.01 0.01 0.02 0.02 0.04 0.05 0.06 0.05 0.03 0.02 0.01 0.01 0.00 0.01 0.02 0.03 0.03
0.00 0.00 0.00 0.00 0.01 0.00 0.00 0.00 0.00 0.00 0.01 0.02 0.08 0.05 0.05 0.11 0.11 0.11 0.08 0.02 0.03 0.02 0.03 0.04 0.02 0.00 0.00 0.00 0.00 0.00 0.00 0.00 0.00 0.00 0.00 0.02 0.02 0.01 0.02 0.02 0.01 0.02 0.02 0.01 0.02 0.03 0.02 0.02 0.01 0.01 0.01 0.02 0.03 0.04
0.00 0.00 0.00 0.01 0.01 0.00 0.00 0.00 0.00 0.00 0.00 0.00 0.03 0.04 0.03 0.06 0.10 0.06 0.03 0.02 0.05 0.07 0.04 0.02 0.00 0.00 0.00 0.00 0.00 0.00 0.00 0.00 0.00 0.00 0.00 0.00 0.01 0.01 0.01 0.01 0.01 0.02 0.02 0.01 0.01 0.01 0.02 0.01 0.01 0.00 0.01 0.02 0.02 0.03
0.00 0.00 0.00 0.00 0.00 0.00 0.00 0.00 0.00 0.00 0.01 0.00 0.00 0.02 0.03 0.01 0.01 0.02 0.02 0.02 0.07 0.10 0.02 0.00 0.00 0.00 0.00 0.00 0.00 0.00 0.00 0.00 0.00 0.00 0.00 0.00 0.00 0.00 0.00 0.00 0.00 0.01 0.01 0.02 0.01 0.01 0.02 0.01 0.01 0.02 0.03 0.03 0.03 0.04
0.00 0.00 0.00 0.00 0.00 0.00 0.00 0.00 0.00 0.00 0.00 0.00 0.00 0.00 0.00 0.00 0.00 0.01 0.02 0.03 0.06 0.06 0.02 0.00 0.00 0.00 0.00 0.00 0.00 0.00 0.00 0.00 0.00 0.00 0.00 0.00 0.00 0.00 0.00 0.00 0.00 0.00 0.00 0.00 0.01 0.02 0.02 0.03 0.03 0.04 0.04 0.04 0.04 0.04
0.00 0.00 0.00 0.00 0.00 0.00 0.00 0.00 0.00 0.00 0.00 0.00 0.00 0.01 0.00 0.00 0.01 0.01 0.01 0.06 0.05 0.04 0.02 0.01 0.00 0.00 0.01 0.01 0.01 0.00 0.00 0.00 0.00 0.00 0.01 0.00 0.01 0.01 0.02 0.02 0.02 0.02 0.02 0.02 0.02 0.02 0.03 0.04 0.05 0.06 0.06 0.06 0.06 0.08
0.00 0.00 0.00 0.00 0.00 0.00 0.01 0.01 0.01 0.00 0.01 0.00 0.01 0.01 0.00 0.01 0.00 0.02 0.02 0.05 0.04 0.04 0.04 0.02 0.01 0.00 0.00 0.00 0.00 0.01 0.00 0.00 0.00 0.01 0.01 0.01 0.01 0.03 0.04 0.04 0.05 0.06 0.06 0.05 0.03 0.04 0.05 0.05 0.07 0.07 0.10 0.11 0.08 0.07
0.00 0.00 0.00 0.00 0.00 0.00 0.00 0.01 0.01 0.00 0.00 0.00 0.01 0.00 0.00 0.00 0.02 0.03 0.04 0.04 0.03 0.03 0.03 0.02 0.01 0.00 0.00 0.00 0.01 0.00 0.00 0.00 0.00 0.01 0.01 0.01 0.01 0.02 0.02 0.04 0.04 0.03 0.03 0.07 0.07 0.05 0.04 0.06 0.08 0.10 0.12 0.12 0.09 0.07
0.01 0.01 0.01 0.01 0.01 0.01 0.01 0.01 0.01 0.02 0.03 0.03 0.01 0.01 0.01 0.02 0.07 0.05 0.04 0.05 0.03 0.03 0.02 0.01 0.00 0.00 0.00 0.00 0.00 0.01 0.01 0.02 0.01 0.00 0.00 0.00 0.01 0.01 0.02 0.04 0.02 0.01 0.02 0.05 0.09 0.10 0.09 0.08 0.08 0.08 0.08 0.09 0.13 0.13
0.00 0.01 0.00 0.00 0.01 0.01 0.02 0.04 0.07 0.06 0.05 0.04 0.04 0.08 0.04 0.02 0.04 0.05 0.05 0.04 0.03 0.03 0.02 0.02 0.03 0.02 0.02 0.01 0.01 0.01 0.01 0.02 0.02 0.01 0.01 0.01 0.01 0.03 0.04 0.06 0.06 0.05 0.06 0.09 0.15 0.15 0.14 0.12 0.09 0.09 0.10 0.11 0.12 0.12
0.01 0.00 0.00 0.00 0.00 0.02 0.04 0.04 0.04 0.03 0.02 0.02 0.02 0.02 0.02 0.03 0.05 0.04 0.03 0.03 0.04 0.05 0.05 0.05 0.03 0.03 0.03 0.03 0.03 0.02 0.04 0.05 0.05 0.05 0.04 0.02 0.01 0.02 0.03 0.02 0.03 0.04 0.04 0.05 0.10 0.17 0.15 0.14 0.15 0.15 0.12 0.12 0.11 0.09
0.00 0.00 0.01 0.01 0.02 0.02 0.02 0.02 0.01 0.01 0.01 0.01 0.01 0.01 0.03 0.04 0.05 0.03 0.02 0.03 0.03 0.03 0.03 0.05 0.05 0.06 0.06 0.06 0.04 0.03 0.04 0.04 0.02 0.02 0.02 0.01 0.01 0.02 0.02 0.03 0.03 0.04 0.06 0.07 0.09 0.10 0.10 0.10 0.10 0.09 0.08 0.08 0.08 0.06
0.01 0.02 0.03 0.03 0.04 0.02 0.00 0.01 0.01 0.01 0.02 0.02 0.02 0.03 0.04 0.03 0.04 0.04 0.02 0.02 0.03 0.04 0.06 0.06 0.09 0.13 0.09 0.08 0.07 0.07 0.06 0.04 0.04 0.03 0.03 0.03 0.04 0.03 0.02 0.03 0.05 0.05 0.05 0.06 0.06 0.07 0.07 0.06 0.07 0.07 0.06 0.06 0.06 0.06
0.01 0.01 0.01 0.01 0.01 0.01 0.02 0.01 0.01 0.02 0.03 0.04 0.04 0.06 0.07 0.04 0.05 0.04 0.03 0.02 0.03 0.04 0.05 0.05 0.07 0.09 0.09 0.08 0.09 0.10 0.11 0.11 0.09 0.08 0.06 0.05 0.05 0.05 0.06 0.05 0.05 0.04 0.03 0.03 0.04 0.04 0.04 0.04 0.04 0.05 0.04 0.04 0.04 0.03

GFSWCAN_prec_precacc24_144.txt.gz
Total_Precipitation_Accumulation
0.52 0.37 0.26 0.21 0.17 0.16 0.24 0.26 0.20 0.22 0.23 0.25 0.24 0.36 0.47 0.56 1.05 0.75 0.62 0.32 0.40 0.40 0.19 0.22 0.15 0.06 0.03 0.04 0.10 0.08 0.15 0.17 0.18 0.13 0.09 0.04 0.03 0.03 0.08 0.07 0.02 0.02 0.03 0.03 0.05 0.13 0.03 0.00 0.00 0.00 0.00 0.00 0.00 0.00
0.79 0.58 0.36 0.21 0.15 0.15 0.23 0.35 0.28 0.21 0.24 0.25 0.25 0.30 0.48 0.65 0.74 0.88 0.53 0.48 0.34 0.48 0.27 0.15 0.31 0.17 0.05 0.01 0.03 0.09 0.10 0.05 0.03 0.04 0.03 0.03 0.05 0.04 0.05 0.12 0.06 0.03 0.01 0.04 0.03 0.02 0.00 0.00 0.00 0.00 0.00 0.00 0.00 0.00
0.79 0.88 0.74 0.37 0.23 0.18 0.23 0.38 0.32 0.23 0.23 0.22 0.24 0.29 0.55 0.68 0.59 0.75 0.48 0.38 0.46 0.60 0.35 0.10 0.25 0.18 0.14 0.09 0.02 0.07 0.05 0.03 0.04 0.01 0.03 0.06 0.05 0.02 0.06 0.05 0.04 0.02 0.00 0.00 0.01 0.00 0.00 0.00 0.00 0.00 0.00 0.00 0.00 0.00
0.59 0.64 0.62 0.36 0.27 0.30 0.23 0.37 0.31 0.23 0.22 0.22 0.27 0.31 0.57 0.65 0.66 0.65 0.44 0.31 0.30 0.40 0.54 0.20 0.06 0.10 0.08 0.16 0.08 0.04 0.05 0.02 0.04 0.09 0.08 0.09 0.06 0.01 0.02 0.03 0.05 0.02 0.01 0.02 0.02 0.00 0.00 0.00 0.00 0.00 0.00 0.00 0.00 0.00
0.33 0.32 0.49 0.35 0.21 0.26 0.20 0.30 0.26 0.23 0.23 0.20 0.35 0.33 0.49 0.63 0.88 0.67 0.28 0.44 0.22 0.28 0.40 0.16 0.04 0.03 0.05 0.08 0.15 0.09 0.03 0.07 0.09 0.10 0.09 0.05 0.02 0.04 0.06 0.04 0.01 0.01 0.01 0.02 0.01 0.00 0.00 0.00 0.00 0.00 0.00 0.00 0.00 0.00
0.21 0.27 0.39 0.31 0.23 0.25 0.18 0.24 0.22 0.23 0.22 0.20 0.43 0.32 0.46 0.72 0.84 0.60 0.80 0.91 0.53 0.15 0.51 0.36 0.12 0.02 0.04 0.08 0.14 0.28 0.20 0.16 0.20 0.17 0.10 0.05 0.03 0.09 0.08 0.03 0.00 0.00 0.00 0.00 0.00 0.00 0.00 0.00 0.00 0.00 0.00 0.00 0.00 0.00
0.24 0.26 0.35 0.35 0.25 0.22 0.19 0.24 0.20 0.23 0.22 0.23 0.47 0.34 0.47 0.56 0.45 0.42 0.39 0.39 0.39 0.28 0.26 0.34 0.24 0.09 0.04 0.10 0.13 0.15 0.24 0.35 0.28 0.23 0.10 0.06 0.06 0.12 0.10 0.03 0.01 0.00 0.00 0.00 0.00 0.00 0.00 0.00 0.00 0.00 0.00 0.00 0.00 0.00
0.22 0.30 0.31 0.31 0.21 0.21 0.23 0.22 0.22 0.25 0.24 0.46 0.45 0.54 0.55 0.47 0.43 0.29 0.09 0.04 0.18 0.38 0.19 0.16 0.19 0.41 0.16 0.21 0.31 0.17 0.26 0.41 0.39 0.24 0.18 0.06 0.09 0.16 0.09 0.00 0.00 0.00 0.00 0.00 0.00 0.00 0.00 0.00 0.00 0.01 0.00 0.00 0.00 0.00
0.21 0.24 0.26 0.20 0.20 0.22 0.20 0.19 0.25 0.23 0.40 0.58 0.70 0.72 0.76 0.56 0.54 0.31 0.07 0.14 0.19 0.33 0.22 0.07 0.07 0.25 0.32 0.19 0.34 0.45 0.26 0.39 0.40 0.27 0.09 0.09 0.12 0.06 0.01 0.00 0.00 0.00 0.00 0.00 0.00 0.00 0.00 0.00 0.00 0.02 0.02 0.02 0.02 0.01
0.18 0.16 0.14 0.17 0.20 0.20 0.21 0.27 0.26 0.44 0.64 0.67 0.75 0.76 0.94 0.37 0.35 0.39 0.56 0.63 0.54 0.38 0.21 0.07 0.02 0.09 0.22 0.38 0.26 0.39 0.33 0.20 0.16 0.13 0.10 0.08 0.02 0.00 0.00 0.00 0.00 0.00 0.00 0.00 0.00 0.00 0.00 0.00 0.01 0.03 0.04 0.05 0.06 0.03
0.14 0.15 0.16 0.16 0.16 0.19 0.21 0.23 0.40 0.45 0.38 0.38 0.44 0.53 0.27 0.31 0.49 0.65 0.67 0.37 0.36 0.26 0.05 0.01 0.02 0.09 0.06 0.20 0.34 0.21 0.19 0.19 0.21 0.12 0.07 0.09 0.01 0.00 0.00 0.00 0.00 0.00 0.00 0.00 0.00 0.00 0.00 0.00 0.00 0.05 0.09 0.09 0.08 0.06
0.12 0.12 0.13 0.14 0.15 0.14 0.15 0.21 0.17 0.12 0.11 0.06 0.15 0.18 0.29 0.40 0.40 0.53 0.34 0.10 0.13 0.05 0.00 0.00 0.02 0.10 0.10 0.12 0.24 0.23 0.14 0.07 0.12 0.09 0.07 0.03 0.02 0.01 0.00 0.00 0.00 0.00 0.00 0.00 0.00 0.00 0.00 0.00 0.01 0.04 0.08 0.08 0.08 0.11
0.07 0.07 0.05 0.04 0.04 0.05 0.06 0.06 0.07 0.05 0.02 0.02 0.05 0.09 0.10 0.19 0.15 0.19 0.10 0.02 0.02 0.01 0.01 0.01 0.08 0.12 0.08 0.07 0.13 0.16 0.15 0.12 0.07 0.07 0.04 0.03 0.02 0.03 0.02 0.00 0.00 0.00 0.00 0.00 0.00 0.00 0.01 0.04 0.07 0.08 0.08 0.08 0.12 0.17
0.04 0.04 0.04 0.03 0.02 0.02 0.02 0.03 0.06 0.06 0.11 0.09 0.06 0.01 0.05 0.04 0.03 0.06 0.07 0.08 0.08 0.04 0.01 0.02 0.04 0.07 0.07 0.04 0.09 0.11 0.10 0.05 0.04 0.03 0.03 0.02 0.00 0.00 0.00 0.00 0.00 0.00 0.00 0.00 0.00 0.00 0.03 0.06 0.11 0.11 0.08 0.11 0.13 0.12
0.02 0.02 0.02 0.04 0.04 0.06 0.04 0.02 0.07 0.12 0.16 0.10 0.05 0.03 0.04 0.09 0.07 0.03 0.01 0.01 0.02 0.05 0.04 0.05 0.06 0.10 0.07 0.07 0.02 0.06 0.02 0.01 0.01 0.02 0.03 0.00 0.00 0.00 0.00 0.00 0.00 0.00 0.00 0.00 0.00 0.01 0.04 0.07 0.10 0.12 0.12 0.11 0.08 0.07
0.01 0.01 0.04 0.08 0.08 0.04 0.02 0.02 0.03 0.05 0.04 0.03 0.03 0.10 0.10 0.08 0.09 0.04 0.02 0.03 0.04 0.08 0.10 0.10 0.09 0.09 0.11 0.04 0.02 0.01 0.01 0.01 0.01 0.00 0.00 0.00 0.00 0.00 0.00 0.00 0.00 0.00 0.00 0.00 0.01 0.03 0.04 0.07 0.09 0.10 0.13 0.13 0.11 0.09
0.00 0.01 0.01 0.02 0.03 0.02 0.02 0.03 0.03 0.01 0.01 0.04 0.14 0.13 0.15 0.20 0.19 0.07 0.01 0.01 0.05 0.10 0.09 0.09 0.06 0.04 0.04 0.04 0.01 0.01 0.01 0.01 0.01 0.01 0.01 0.01 0.00 0.00 0.00 0.00 0.00 0.00 0.00 0.00 0.01 0.02 0.03 0.05 0.07 0.09 0.09 0.11 0.11 0.11
0.03 0.00 0.00 0.00 0.01 0.02 0.01 0.01 0.01 0.00 0.05 0.12 0.20 0.19 0.08 0.08 0.05 0.02 0.01 0.00 0.03 0.08 0.07 0.06 0.03 0.02 0.02 0.03 0.02 0.00 0.01 0.01 0.01 0.01 0.01 0.01 0.01 0.01 0.00 0.00 0.01 0.01 0.00 0.00 0.01 0.01 0.01 0.02 0.03 0.04 0.05 0.07 0.07 0.07
0.01 0.01 0.02 0.01 0.01 0.02 0.01 0.00 0.00 0.04 0.14 0.15 0.17 0.13 0.07 0.07 0.06 0.02 0.00 0.00 0.03 0.07 0.06 0.02 0.02 0.02 0.03 0.01 0.01 0.01 0.01 0.01 0.01 0.01 0.02 0.01 0.01 0.01 0.01 0.01 0.02 0.02 0.02 0.01 0.01 0.00 0.00 0.00 0.00 0.01 0.02 0.03 0.03 0.03
0.00 0.00 0.02 0.01 0.03 0.04 0.00 0.00 0.00 0.01 0.04 0.09 0.11 0.07 0.04 0.10 0.13 0.06 0.04 0.02 0.04 0.05 0.02 0.02 0.03 0.02 0.01 0.00 0.00 0.01 0.01 0.01 0.00 0.01 0.02 0.03 0.02 0.01 0.01 0.01 0.01 0.02 0.03 0.04 0.04 0.03 0.02 0.01 0.01 0.00 0.01 0.02 0.03 0.04
0.00 0.00 0.00 0.01 0.02 0.02 0.00 0.00 0.00 0.00 0.00 0.02 0.08 0.04 0.05 0.11 0.12 0.11 0.10 0.03 0.06 0.04 0.03 0.03 0.02 0.01 0.00 0.00 0.00 0.00 0.00 0.00 0.00 0.00 0.01 0.02 0.02 0.01 0.02 0.02 0.01 0.02 0.02 0.01 0.02 0.03 0.02 0.02 0.01 0.01 0.01 0.02 0.04 0.04
0.00 0.00 0.00 0.01 0.04 0.02 0.00 0.00 0.00 0.00 0.00 0.00 0.03 0.05 0.07 0.08 0.10 0.07 0.04 0.03 0.06 0.07 0.04 0.02 0.00 0.00 0.00 0.00 0.00 0.00 0.00 0.00 0.00 0.00 0.00 0.00 0.01 0.01 0.01 0.02 0.01 0.02 0.02 0.02 0.01 0.01 0.02 0.01 0.01 0.01 0.01 0.02 0.02 0.03
0.00 0.00 0.00 0.00 0.00 0.00 0.00 0.00 0.00 0.00 0.00 0.00 0.00 0.03 0.04 0.03 0.02 0.04 0.06 0.03 0.07 0.10 0.02 0.00 0.00 0.00 0.00 0.00 0.00 0.00 0.00 0.00 0.00 0.00 0.00 0.00 0.00 0.00 0.00 0.01 0.00 0.01 0.02 0.02 0.01 0.01 0.02 0.01 0.01 0.02 0.03 0.03 0.03 0.04
0.00 0.00 0.00 0.00 0.00 0.00 0.00 0.00 0.00 0.00 0.00 0.00 0.00 0.01 0.00 0.01 0.00 0.03 0.04 0.04 0.06 0.06 0.02 0.00 0.00 0.01 0.01 0.00 0.00 0.00 0.00 0.00 0.00 0.00 0.00 0.00 0.00 0.01 0.00 0.00 0.00 0.01 0.01 0.00 0.01 0.02 0.02 0.03 0.03 0.03 0.04 0.04 0.04 0.04
0.00 0.00 0.00 0.00 0.00 0.00 0.00 0.00 0.00 0.00 0.01 0.01 0.00 0.01 0.01 0.00 0.02 0.02 0.02 0.05 0.05 0.04 0.02 0.01 0.00 0.00 0.01 0.01 0.01 0.00 0.00 0.00 0.00 0.00 0.01 0.01 0.01 0.01 0.02 0.02 0.02 0.02 0.01 0.01 0.01 0.01 0.02 0.03 0.04 0.06 0.06 0.06 0.06 0.07
0.00 0.00 0.00 0.00 0.00 0.00 0.00 0.01 0.01 0.01 0.01 0.01 0.01 0.01 0.00 0.02 0.02 0.02 0.02 0.05 0.04 0.04 0.03 0.02 0.01 0.01 0.01 0.00 0.00 0.01 0.00 0.00 0.00 0.01 0.01 0.01 0.01 0.03 0.04 0.04 0.04 0.05 0.06 0.04 0.02 0.02 0.03 0.04 0.05 0.06 0.07 0.09 0.08 0.08
0.00 0.00 0.00 0.01 0.00 0.00 0.00 0.01 0.01 0.00 0.01 0.01 0.01 0.01 0.01 0.01 0.02 0.04 0.05 0.05 0.04 0.04 0.02 0.02 0.01 0.00 0.00 0.00 0.01 0.00 0.00 0.00 0.00 0.02 0.01 0.01 0.01 0.02 0.02 0.03 0.05 0.05 0.03 0.05 0.05 0.03 0.03 0.04 0.05 0.08 0.10 0.11 0.09 0.08
0.01 0.01 0.01 0.01 0.01 0.01 0.01 0.01 0.02 0.02 0.03 0.02 0.01 0.01 0.01 0.02 0.05 0.05 0.05 0.05 0.04 0.03 0.03 0.02 0.01 0.00 0.00 0.00 0.00 0.00 0.01 0.02 0.01 0.00 0.00 0.00 0.00 0.01 0.02 0.03 0.02 0.01 0.01 0.04 0.08 0.09 0.09 0.07 0.06 0.07 0.08 0.09 0.14 0.15
0.00 0.00 0.00 0.01 0.01 0.01 0.02 0.03 0.05 0.05 0.04 0.03 0.03 0.05 0.03 0.02 0.04 0.05 0.05 0.04 0.04 0.04 0.04 0.03 0.03 0.02 0.01 0.01 0.01 0.01 0.01 0.01 0.01 0.01 0.01 0.01 0.01 0.03 0.04 0.05 0.05 0.04 0.05 0.07 0.13 0.13 0.13 0.12 0.10 0.09 0.11 0.11 0.13 0.13
0.01 0.00 0.01 0.00 0.00 0.02 0.04 0.03 0.04 0.04 0.02 0.02 0.02 0.02 0.02 0.03 0.04 0.04 0.04 0.03 0.05 0.06 0.06 0.05 0.03 0.03 0.03 0.03 0.03 0.02 0.03 0.04 0.04 0.04 0.04 0.02 0.02 0.02 0.02 0.02 0.02 0.03 0.04 0.06 0.09 0.16 0.16 0.15 0.17 0.16 0.13 0.13 0.12 0.11
0.00 0.00 0.01 0.01 0.01 0.03 0.03 0.02 0.02 0.01 0.02 0.02 0.02 0.02 0.04 0.04 0.04 0.03 0.02 0.03 0.03 0.04 0.04 0.06 0.06 0.06 0.07 0.06 0.05 0.03 0.04 0.03 0.02 0.02 0.02 0.02 0.01 0.01 0.01 0.02 0.03 0.03 0.06 0.08 0.09 0.10 0.11 0.12 0.11 0.10 0.10 0.09 0.09 0.07
0.01 0.01 0.03 0.02 0.03 0.02 0.01 0.01 0.01 0.02 0.02 0.03 0.02 0.03 0.05 0.03 0.04 0.03 0.01 0.02 0.02 0.04 0.06 0.05 0.08 0.12 0.09 0.07 0.06 0.06 0.05 0.04 0.03 0.03 0.02 0.03 0.03 0.02 0.02 0.03 0.04 0.04 0.05 0.06 0.07 0.08 0.08 0.08 0.09 0.09 0.08 0.08 0.08 0.07
0.01 0.01 0.01 0.01 0.01 0.02 0.02 0.01 0.01 0.02 0.03 0.04 0.04 0.06 0.07 0.05 0.03 0.03 0.02 0.02 0.03 0.04 0.04 0.05 0.07 0.08 0.08 0.06 0.06 0.08 0.10 0.09 0.07 0.06 0.05 0.05 0.04 0.04 0.05 0.05 0.05 0.04 0.04 0.04 0.05 0.06 0.06 0.05 0.06 0.06 0.06 0.05 0.05 0.05

GFSWCAN_prec_precacc24_147.txt.gz
Total_Precipitation_Accumulation
0.38 0.27 0.21 0.18 0.17 0.16 0.17 0.18 0.16 0.16 0.20 0.26 0.26 0.39 0.50 0.57 1.06 0.76 0.56 0.29 0.41 0.56 0.23 0.22 0.21 0.14 0.06 0.06 0.10 0.10 0.19 0.20 0.42 0.34 0.29 0.21 0.07 0.01 0.01 0.02 0.02 0.03 0.09 0.12 0.11 0.17 0.03 0.00 0.00 0.00 0.00 0.00 0.00 0.00
0.69 0.56 0.35 0.22 0.17 0.15 0.16 0.24 0.22 0.17 0.21 0.26 0.27 0.33 0.51 0.66 0.75 0.86 0.43 0.40 0.32 0.55 0.40 0.23 0.33 0.18 0.12 0.08 0.04 0.10 0.10 0.06 0.07 0.13 0.09 0.06 0.05 0.03 0.04 0.06 0.06 0.03 0.01 0.01 0.02 0.02 0.00 0.00 0.00 0.00 0.00 0.00 0.00 0.00
0.77 0.88 0.74 0.40 0.24 0.17 0.14 0.30 0.26 0.20 0.20 0.22 0.26 0.31 0.56 0.70 0.59 0.70 0.35 0.37 0.49 0.71 0.44 0.12 0.25 0.18 0.16 0.13 0.03 0.08 0.06 0.04 0.05 0.01 0.04 0.06 0.04 0.02 0.05 0.05 0.05 0.02 0.00 0.00 0.01 0.00 0.00 0.00 0.00 0.02 0.01 0.00 0.00 0.00
0.58 0.66 0.64 0.42 0.26 0.22 0.16 0.31 0.27 0.21 0.20 0.21 0.28 0.31 0.59 0.75 0.62 0.57 0.31 0.22 0.47 0.50 0.52 0.18 0.04 0.09 0.08 0.16 0.10 0.06 0.06 0.02 0.05 0.09 0.11 0.10 0.08 0.03 0.03 0.03 0.04 0.02 0.02 0.03 0.02 0.00 0.00 0.00 0.00 0.01 0.01 0.00 0.00 0.00
0.30 0.31 0.51 0.49 0.22 0.23 0.16 0.25 0.24 0.21 0.20 0.18 0.33 0.34 0.62 0.91 0.84 0.57 0.20 0.35 0.33 0.36 0.41 0.14 0.03 0.03 0.05 0.08 0.15 0.10 0.04 0.07 0.09 0.10 0.09 0.07 0.03 0.05 0.07 0.04 0.01 0.01 0.01 0.03 0.01 0.00 0.00 0.00 0.00 0.00 0.00 0.00 0.00 0.00
0.16 0.21 0.45 0.42 0.20 0.21 0.15 0.22 0.20 0.21 0.20 0.16 0.39 0.41 0.80 1.19 0.92 0.56 0.79 1.00 0.60 0.22 0.54 0.33 0.09 0.02 0.04 0.08 0.14 0.28 0.20 0.16 0.19 0.16 0.10 0.05 0.03 0.10 0.09 0.03 0.00 0.00 0.00 0.00 0.00 0.00 0.00 0.00 0.00 0.00 0.00 0.00 0.00 0.00
0.24 0.29 0.36 0.28 0.19 0.16 0.14 0.20 0.17 0.20 0.18 0.17 0.47 0.63 0.99 1.06 0.61 0.43 0.40 0.46 0.45 0.34 0.29 0.34 0.24 0.10 0.04 0.10 0.13 0.14 0.23 0.34 0.28 0.22 0.09 0.06 0.06 0.14 0.11 0.03 0.01 0.00 0.00 0.00 0.00 0.00 0.00 0.00 0.00 0.00 0.00 0.00 0.00 0.00
0.29 0.31 0.27 0.24 0.15 0.15 0.17 0.17 0.16 0.19 0.18 0.42 0.62 0.78 0.69 0.60 0.48 0.29 0.10 0.11 0.21 0.39 0.20 0.18 0.20 0.42 0.16 0.21 0.31 0.17 0.26 0.41 0.39 0.24 0.18 0.06 0.10 0.18 0.10 0.00 0.00 0.00 0.00 0.00 0.00 0.00 0.00 0.00 0.00 0.00 0.00 0.00 0.00 0.00
0.24 0.25 0.26 0.17 0.15 0.16 0.14 0.13 0.20 0.18 0.35 0.61 0.77 0.68 0.72 0.54 0.53 0.31 0.07 0.15 0.19 0.33 0.22 0.08 0.07 0.25 0.32 0.19 0.34 0.46 0.26 0.40 0.41 0.28 0.09 0.08 0.12 0.07 0.01 0.00 0.00 0.00 0.00 0.00 0.00 0.00 0.00 0.00 0.00 0.02 0.02 0.02 0.02 0.01
0.19 0.16 0.14 0.16 0.19 0.16 0.16 0.21 0.20 0.40 0.63 0.70 0.73 0.75 0.91 0.36 0.35 0.39 0.55 0.63 0.53 0.38 0.21 0.07 0.03 0.10 0.22 0.38 0.26 0.40 0.34 0.21 0.17 0.14 0.10 0.08 0.02 0.00 0.00 0.00 0.00 0.00 0.00 0.01 0.00 0.01 0.01 0.01 0.00 0.02 0.04 0.05 0.06 0.03
0.14 0.15 0.16 0.16 0.16 0.19 0.21 0.22 0.40 0.45 0.39 0.39 0.44 0.54 0.28 0.31 0.51 0.65 0.67 0.37 0.35 0.26 0.04 0.01 0.02 0.11 0.07 0.20 0.35 0.22 0.20 0.19 0.22 0.14 0.08 0.09 0.01 0.00 0.00 0.00 0.00 0.00 0.01 0.02 0.06 0.04 0.01 0.01 0.00 0.04 0.08 0.09 0.08 0.06
0.12 0.12 0.13 0.14 0.16 0.15 0.16 0.21 0.17 0.12 0.12 0.06 0.16 0.18 0.30 0.41 0.41 0.53 0.34 0.11 0.13 0.05 0.00 0.00 0.02 0.12 0.11 0.14 0.27 0.23 0.14 0.08 0.12 0.20 0.25 0.07 0.03 0.02 0.02 0.05 0.02 0.01 0.02 0.02 0.02 0.00 0.00 0.00 0.01 0.04 0.08 0.08 0.08 0.11
0.07 0.07 0.06 0.06 0.06 0.07 0.07 0.06 0.07 0.06 0.02 0.02 0.06 0.11 0.11 0.19 0.16 0.20 0.11 0.02 0.02 0.01 0.01 0.01 0.09 0.15 0.09 0.10 0.15 0.16 0.15 0.14 0.12 0.10 0.04 0.03 0.04 0.11 0.07 0.08 0.06 0.03 0.00 0.00 0.00 0.00 0.00 0.02 0.05 0.07 0.08 0.07 0.12 0.16
0.05 0.06 0.08 0.10 0.11 0.13 0.11 0.06 0.08 0.08 0.13 0.13 0.07 0.02 0.05 0.04 0.03 0.05 0.09 0.09 0.09 0.04 0.00 0.01 0.07 0.08 0.08 0.04 0.10 0.11 0.11 0.10 0.16 0.06 0.02 0.04 0.04 0.03 0.00 0.00 0.00 0.00 0.00 0.00 0.00 0.00 0.01 0.03 0.08 0.09 0.07 0.11 0.13 0.12
0.02 0.02 0.04 0.07 0.08 0.09 0.06 0.03 0.08 0.15 0.22 0.13 0.06 0.03 0.04 0.10 0.09 0.03 0.02 0.02 0.02 0.05 0.05 0.06 0.08 0.11 0.09 0.09 0.03 0.07 0.05 0.05 0.01 0.01 0.04 0.01 0.01 0.00 0.00 0.00 0.00 0.00 0.00 0.00 0.00 0.00 0.02 0.04 0.07 0.09 0.11 0.11 0.08 0.07
0.01 0.01 0.04 0.08 0.09 0.04 0.02 0.06 0.07 0.09 0.08 0.06 0.04 0.10 0.11 0.09 0.06 0.02 0.01 0.02 0.02 0.12 0.16 0.14 0.11 0.11 0.12 0.05 0.03 0.02 0.02 0.01 0.02 0.01 0.01 0.00 0.00 0.00 0.00 0.00 0.00 0.00 0.00 0.00 0.00 0.01 0.03 0.04 0.06 0.08 0.11 0.12 0.11 0.09
0.00 0.01 0.01 0.02 0.03 0.02 0.02 0.05 0.07 0.02 0.03 0.04 0.15 0.16 0.15 0.18 0.16 0.06 0.00 0.00 0.06 0.15 0.11 0.12 0.09 0.06 0.08 0.06 0.03 0.02 0.01 0.01 0.00 0.01 0.01 0.00 0.00 0.00 0.00 0.00 0.00 0.00 0.00 0.00 0.01 0.02 0.03 0.05 0.06 0.08 0.09 0.12 0.11 0.11
0.09 0.01 0.00 0.00 0.01 0.02 0.02 0.02 0.04 0.03 0.07 0.12 0.23 0.22 0.09 0.09 0.05 0.02 0.01 0.00 0.06 0.11 0.11 0.11 0.09 0.06 0.05 0.05 0.04 0.01 0.00 0.01 0.01 0.01 0.01 0.01 0.00 0.00 0.00 0.00 0.01 0.00 0.00 0.00 0.01 0.01 0.02 0.02 0.03 0.04 0.05 0.07 0.07 0.07
0.02 0.01 0.02 0.02 0.02 0.03 0.02 0.00 0.01 0.03 0.12 0.12 0.15 0.12 0.06 0.07 0.06 0.02 0.00 0.00 0.03 0.12 0.23 0.14 0.12 0.05 0.05 0.02 0.01 0.01 0.00 0.01 0.01 0.01 0.02 0.01 0.01 0.01 0.00 0.01 0.01 0.01 0.01 0.00 0.01 0.00 0.00 0.00 0.00 0.01 0.02 0.03 0.03 0.03
0.00 0.00 0.02 0.02 0.03 0.05 0.01 0.00 0.00 0.01 0.04 0.08 0.10 0.07 0.04 0.10 0.13 0.06 0.04 0.02 0.04 0.08 0.21 0.16 0.04 0.02 0.01 0.00 0.00 0.01 0.00 0.01 0.00 0.01 0.03 0.03 0.03 0.01 0.01 0.01 0.01 0.02 0.02 0.02 0.02 0.02 0.01 0.01 0.01 0.00 0.01 0.02 0.03 0.04
0.00 0.00 0.00 0.01 0.02 0.03 0.01 0.00 0.00 0.00 0.00 0.02 0.08 0.04 0.05 0.10 0.12 0.11 0.10 0.04 0.09 0.11 0.08 0.03 0.02 0.01 0.00 0.00 0.00 0.00 0.00 0.00 0.00 0.00 0.01 0.02 0.02 0.01 0.02 0.01 0.01 0.02 0.02 0.01 0.01 0.02 0.02 0.02 0.01 0.01 0.01 0.02 0.04 0.04
0.00 0.00 0.00 0.01 0.04 0.02 0.00 0.00 0.00 0.00 0.00 0.00 0.04 0.05 0.07 0.09 0.11 0.07 0.04 0.04 0.07 0.07 0.04 0.02 0.00 0.00 0.00 0.00 0.00 0.00 0.00 0.00 0.00 0.00 0.00 0.00 0.01 0.01 0.01 0.01 0.01 0.02 0.02 0.02 0.01 0.01 0.02 0.01 0.01 0.01 0.01 0.02 0.03 0.03
0.00 0.00 0.00 0.00 0.00 0.00 0.00 0.00 0.00 0.00 0.00 0.00 0.00 0.03 0.05 0.04 0.02 0.04 0.07 0.04 0.07 0.10 0.02 0.00 0.00 0.00 0.00 0.00 0.00 0.00 0.00 0.00 0.00 0.00 0.00 0.00 0.00 0.00 0.00 0.01 0.00 0.01 0.02 0.02 0.01 0.01 0.02 0.02 0.01 0.02 0.03 0.03 0.04 0.05
0.00 0.00 0.00 0.00 0.00 0.00 0.00 0.00 0.00 0.00 0.00 0.00 0.00 0.01 0.01 0.02 0.01 0.04 0.05 0.03 0.06 0.06 0.02 0.00 0.00 0.01 0.01 0.00 0.00 0.00 0.00 0.00 0.00 0.00 0.00 0.00 0.00 0.01 0.00 0.00 0.00 0.01 0.01 0.00 0.01 0.02 0.03 0.04 0.03 0.04 0.04 0.05 0.06 0.05
0.00 0.00 0.00 0.00 0.00 0.00 0.00 0.00 0.00 0.00 0.01 0.01 0.01 0.01 0.01 0.00 0.03 0.03 0.01 0.05 0.05 0.04 0.02 0.01 0.00 0.00 0.01 0.01 0.01 0.00 0.00 0.00 0.00 0.00 0.01 0.01 0.01 0.01 0.01 0.01 0.01 0.01 0.00 0.01 0.01 0.01 0.02 0.03 0.04 0.05 0.05 0.06 0.08 0.07
0.00 0.00 0.00 0.00 0.00 0.00 0.00 0.01 0.01 0.01 0.01 0.01 0.01 0.01 0.01 0.02 0.03 0.02 0.03 0.05 0.05 0.04 0.03 0.02 0.01 0.01 0.01 0.00 0.00 0.01 0.00 0.00 0.00 0.01 0.01 0.01 0.01 0.03 0.04 0.04 0.03 0.04 0.04 0.03 0.01 0.01 0.02 0.02 0.04 0.05 0.06 0.08 0.07 0.07
0.00 0.00 0.00 0.01 0.00 0.00 0.00 0.01 0.01 0.01 0.01 0.01 0.02 0.01 0.01 0.02 0.02 0.04 0.05 0.05 0.04 0.04 0.02 0.02 0.01 0.01 0.00 0.00 0.01 0.00 0.00 0.00 0.00 0.02 0.01 0.01 0.01 0.01 0.01 0.04 0.06 0.06 0.03 0.03 0.03 0.02 0.03 0.03 0.04 0.05 0.08 0.09 0.08 0.08
0.01 0.01 0.01 0.01 0.01 0.01 0.01 0.01 0.02 0.03 0.03 0.02 0.01 0.01 0.02 0.02 0.05 0.05 0.05 0.05 0.04 0.04 0.05 0.03 0.01 0.00 0.00 0.00 0.00 0.00 0.01 0.02 0.01 0.00 0.00 0.00 0.00 0.01 0.02 0.03 0.02 0.01 0.01 0.03 0.06 0.08 0.08 0.05 0.05 0.06 0.07 0.08 0.12 0.16
0.00 0.00 0.00 0.01 0.01 0.01 0.02 0.04 0.04 0.06 0.04 0.02 0.03 0.04 0.03 0.02 0.04 0.05 0.05 0.04 0.04 0.05 0.07 0.06 0.05 0.02 0.02 0.01 0.01 0.01 0.01 0.01 0.01 0.01 0.00 0.01 0.01 0.02 0.03 0.04 0.05 0.03 0.03 0.05 0.10 0.11 0.12 0.13 0.09 0.08 0.10 0.11 0.13 0.14
0.01 0.00 0.01 0.01 0.00 0.02 0.03 0.03 0.04 0.04 0.02 0.02 0.03 0.02 0.02 0.03 0.04 0.04 0.04 0.03 0.04 0.06 0.07 0.06 0.04 0.04 0.04 0.03 0.03 0.02 0.03 0.03 0.03 0.04 0.03 0.03 0.03 0.02 0.01 0.01 0.02 0.02 0.04 0.06 0.08 0.14 0.16 0.16 0.18 0.16 0.13 0.13 0.13 0.12
0.00 0.01 0.01 0.01 0.01 0.03 0.03 0.02 0.02 0.01 0.02 0.02 0.03 0.03 0.04 0.04 0.04 0.02 0.02 0.03 0.03 0.04 0.05 0.07 0.06 0.06 0.08 0.06 0.05 0.03 0.04 0.02 0.01 0.02 0.02 0.02 0.01 0.01 0.01 0.02 0.02 0.03 0.06 0.08 0.08 0.10 0.11 0.13 0.12 0.11 0.11 0.10 0.10 0.08
0.01 0.01 0.03 0.02 0.03 0.03 0.01 0.01 0.01 0.02 0.02 0.03 0.03 0.03 0.05 0.03 0.02 0.01 0.01 0.01 0.02 0.02 0.04 0.04 0.06 0.09 0.08 0.07 0.05 0.06 0.04 0.03 0.02 0.02 0.02 0.02 0.03 0.02 0.02 0.02 0.03 0.04 0.04 0.05 0.07 0.08 0.10 0.09 0.10 0.10 0.09 0.09 0.09 0.08
0.00 0.01 0.02 0.02 0.01 0.02 0.03 0.01 0.01 0.02 0.02 0.03 0.03 0.05 0.07 0.06 0.02 0.03 0.02 0.01 0.03 0.03 0.03 0.04 0.07 0.08 0.06 0.05 0.06 0.06 0.08 0.08 0.06 0.05 0.05 0.04 0.03 0.04 0.04 0.04 0.04 0.04 0.04 0.04 0.07 0.07 0.08 0.07 0.07 0.08 0.07 0.07 0.07 0.06

GFSWCAN_prec_precacc24_150.txt.gz
Total_Precipitation_Accumulation
0.35 0.25 0.19 0.16 0.16 0.16 0.16 0.15 0.16 0.17 0.20 0.27 0.29 0.41 0.52 0.58 1.08 0.79 0.57 0.27 0.37 0.51 0.20 0.20 0.32 0.26 0.19 0.12 0.11 0.10 0.23 0.25 0.50 0.45 0.50 0.50 0.31 0.12 0.05 0.01 0.02 0.03 0.11 0.15 0.16 0.24 0.04 0.00 0.00 0.00 0.00 0.00 0.00 0.00
0.63 0.51 0.31 0.20 0.16 0.15 0.15 0.16 0.15 0.14 0.16 0.23 0.29 0.35 0.53 0.68 0.76 0.90 0.46 0.34 0.25 0.37 0.36 0.23 0.42 0.34 0.20 0.18 0.12 0.11 0.11 0.06 0.09 0.19 0.15 0.11 0.11 0.18 0.11 0.03 0.01 0.03 0.02 0.02 0.03 0.04 0.00 0.00 0.00 0.00 0.00 0.00 0.00 0.00
0.69 0.74 0.66 0.38 0.22 0.16 0.15 0.16 0.16 0.14 0.13 0.17 0.25 0.32 0.57 0.71 0.61 0.74 0.36 0.34 0.41 0.46 0.29 0.14 0.28 0.34 0.27 0.20 0.16 0.13 0.07 0.04 0.06 0.02 0.04 0.06 0.05 0.02 0.06 0.03 0.02 0.02 0.03 0.01 0.01 0.00 0.00 0.00 0.00 0.02 0.01 0.00 0.00 0.00
0.58 0.68 0.66 0.44 0.26 0.21 0.16 0.16 0.17 0.16 0.12 0.15 0.26 0.31 0.60 0.75 0.65 0.62 0.31 0.18 0.37 0.40 0.37 0.16 0.03 0.10 0.13 0.16 0.15 0.22 0.11 0.04 0.07 0.10 0.11 0.09 0.08 0.03 0.03 0.01 0.03 0.02 0.02 0.03 0.02 0.00 0.00 0.00 0.00 0.01 0.01 0.01 0.01 0.00
0.34 0.35 0.53 0.52 0.28 0.26 0.14 0.17 0.18 0.17 0.14 0.12 0.30 0.34 0.62 0.91 0.86 0.61 0.20 0.21 0.24 0.36 0.46 0.13 0.05 0.07 0.09 0.09 0.15 0.15 0.07 0.08 0.09 0.10 0.09 0.07 0.03 0.06 0.07 0.05 0.01 0.01 0.01 0.03 0.01 0.00 0.00 0.00 0.00 0.00 0.00 0.00 0.00 0.00
0.23 0.24 0.47 0.54 0.23 0.20 0.13 0.20 0.18 0.18 0.17 0.15 0.37 0.38 0.78 1.19 0.92 0.59 0.87 0.69 0.31 0.19 0.73 0.41 0.10 0.06 0.06 0.07 0.13 0.29 0.21 0.16 0.18 0.16 0.10 0.05 0.03 0.10 0.09 0.03 0.00 0.00 0.00 0.00 0.00 0.00 0.00 0.01 0.00 0.00 0.00 0.00 0.00 0.00
0.23 0.34 0.55 0.35 0.18 0.16 0.14 0.19 0.16 0.18 0.16 0.16 0.44 0.67 1.17 1.18 0.67 0.47 0.42 0.31 0.26 0.28 0.40 0.45 0.25 0.15 0.04 0.08 0.11 0.14 0.23 0.34 0.27 0.22 0.09 0.06 0.06 0.14 0.11 0.03 0.01 0.00 0.00 0.00 0.00 0.00 0.00 0.00 0.00 0.00 0.00 0.00 0.00 0.00
0.30 0.33 0.28 0.23 0.14 0.14 0.16 0.16 0.15 0.18 0.18 0.42 0.75 1.25 1.12 0.85 0.65 0.31 0.11 0.11 0.23 0.52 0.31 0.22 0.22 0.44 0.14 0.20 0.31 0.17 0.26 0.41 0.39 0.23 0.17 0.06 0.10 0.18 0.10 0.00 0.00 0.00 0.00 0.00 0.00 0.00 0.00 0.00 0.00 0.00 0.00 0.00 0.00 0.00
0.20 0.19 0.20 0.13 0.12 0.14 0.13 0.12 0.19 0.18 0.41 0.78 0.95 0.96 0.90 0.74 0.69 0.30 0.17 0.25 0.29 0.50 0.33 0.09 0.05 0.24 0.32 0.19 0.34 0.46 0.26 0.40 0.41 0.28 0.09 0.08 0.12 0.07 0.01 0.00 0.00 0.00 0.00 0.00 0.00 0.00 0.00 0.00 0.00 0.00 0.00 0.01 0.01 0.01
0.15 0.11 0.08 0.10 0.12 0.10 0.11 0.17 0.16 0.38 0.62 0.62 0.68 0.77 0.98 0.47 0.37 0.48 0.66 0.68 0.64 0.43 0.22 0.07 0.03 0.10 0.22 0.38 0.26 0.40 0.34 0.21 0.17 0.14 0.10 0.09 0.02 0.00 0.00 0.00 0.00 0.00 0.00 0.01 0.00 0.01 0.01 0.00 0.00 0.00 0.01 0.02 0.05 0.03
0.12 0.10 0.08 0.07 0.06 0.10 0.12 0.15 0.34 0.40 0.35 0.37 0.43 0.53 0.25 0.28 0.49 0.66 0.65 0.36 0.36 0.26 0.04 0.01 0.02 0.11 0.07 0.20 0.35 0.22 0.20 0.19 0.22 0.14 0.08 0.09 0.01 0.00 0.00 0.00 0.00 0.00 0.01 0.02 0.06 0.06 0.05 0.02 0.00 0.01 0.03 0.06 0.07 0.05
0.12 0.12 0.10 0.08 0.08 0.08 0.12 0.19 0.16 0.12 0.11 0.06 0.15 0.17 0.27 0.40 0.41 0.53 0.34 0.11 0.13 0.05 0.00 0.00 0.02 0.12 0.11 0.14 0.27 0.23 0.14 0.08 0.13 0.20 0.27 0.09 0.03 0.04 0.05 0.07 0.03 0.01 0.02 0.02 0.02 0.01 0.02 0.03 0.02 0.02 0.04 0.06 0.07 0.10
0.08 0.08 0.08 0.07 0.08 0.08 0.08 0.06 0.08 0.06 0.02 0.02 0.06 0.11 0.11 0.19 0.16 0.20 0.11 0.02 0.02 0.01 0.01 0.01 0.09 0.16 0.10 0.10 0.15 0.16 0.15 0.14 0.13 0.11 0.05 0.03 0.05 0.12 0.10 0.11 0.08 0.03 0.01 0.00 0.00 0.00 0.01 0.01 0.01 0.03 0.04 0.06 0.09 0.14
0.05 0.07 0.09 0.11 0.11 0.13 0.11 0.06 0.08 0.08 0.13 0.13 0.07 0.02 0.05 0.04 0.02 0.05 0.09 0.09 0.09 0.05 0.00 0.02 0.08 0.11 0.10 0.05 0.10 0.11 0.11 0.10 0.17 0.11 0.03 0.06 0.06 0.04 0.00 0.00 0.00 0.00 0.00 0.00 0.00 0.00 0.00 0.00 0.02 0.03 0.02 0.05 0.09 0.10
0.03 0.05 0.09 0.11 0.11 0.10 0.06 0.03 0.08 0.15 0.22 0.13 0.06 0.03 0.03 0.09 0.07 0.04 0.03 0.04 0.06 0.08 0.06 0.06 0.11 0.15 0.13 0.09 0.03 0.07 0.05 0.05 0.01 0.02 0.04 0.01 0.02 0.00 0.00 0.00 0.00 0.00 0.00 0.00 0.00 0.00 0.00 0.01 0.02 0.04 0.05 0.07 0.06 0.06
0.02 0.01 0.05 0.11 0.09 0.04 0.02 0.07 0.09 0.09 0.08 0.07 0.04 0.09 0.09 0.06 0.04 0.01 0.00 0.01 0.04 0.16 0.20 0.18 0.13 0.12 0.12 0.06 0.03 0.02 0.02 0.01 0.02 0.02 0.01 0.00 0.00 0.00 0.00 0.00 0.00 0.00 0.00 0.00 0.00 0.01 0.01 0.02 0.03 0.04 0.06 0.07 0.08 0.07
0.00 0.01 0.01 0.02 0.03 0.02 0.02 0.05 0.08 0.02 0.03 0.04 0.15 0.17 0.11 0.11 0.11 0.05 0.00 0.00 0.06 0.17 0.11 0.12 0.09 0.06 0.08 0.06 0.03 0.02 0.01 0.01 0.00 0.01 0.01 0.00 0.00 0.00 0.00 0.00 0.00 0.00 0.00 0.00 0.01 0.01 0.01 0.03 0.04 0.05 0.05 0.07 0.08 0.10
0.10 0.01 0.00 0.00 0.01 0.02 0.02 0.02 0.05 0.04 0.08 0.11 0.22 0.21 0.10 0.10 0.07 0.03 0.01 0.00 0.06 0.12 0.12 0.11 0.13 0.07 0.05 0.05 0.04 0.01 0.00 0.01 0.01 0.01 0.01 0.00 0.00 0.00 0.00 0.00 0.01 0.00 0.00 0.00 0.01 0.01 0.01 0.02 0.02 0.03 0.03 0.05 0.06 0.07
0.02 0.01 0.02 0.02 0.02 0.03 0.02 0.00 0.01 0.02 0.08 0.10 0.13 0.12 0.06 0.07 0.06 0.02 0.00 0.00 0.03 0.19 0.26 0.15 0.18 0.17 0.06 0.02 0.01 0.01 0.00 0.01 0.01 0.01 0.01 0.01 0.01 0.00 0.00 0.01 0.01 0.01 0.01 0.00 0.00 0.00 0.00 0.00 0.00 0.01 0.01 0.03 0.03 0.04
0.00 0.00 0.02 0.02 0.03 0.05 0.01 0.00 0.00 0.01 0.03 0.06 0.10 0.07 0.04 0.10 0.13 0.06 0.04 0.02 0.04 0.11 0.28 0.28 0.11 0.07 0.04 0.01 0.00 0.01 0.00 0.01 0.00 0.01 0.03 0.03 0.02 0.01 0.01 0.01 0.01 0.01 0.01 0.01 0.01 0.01 0.01 0.02 0.01 0.00 0.01 0.02 0.03 0.04
0.00 0.00 0.00 0.01 0.02 0.03 0.01 0.00 0.00 0.00 0.00 0.02 0.08 0.04 0.05 0.11 0.12 0.11 0.10 0.05 0.11 0.11 0.08 0.04 0.05 0.02 0.00 0.00 0.00 0.00 0.00 0.00 0.00 0.00 0.01 0.02 0.02 0.01 0.02 0.01 0.01 0.01 0.01 0.01 0.01 0.01 0.02 0.01 0.01 0.01 0.01 0.02 0.04 0.04
0.00 0.00 0.00 0.01 0.04 0.02 0.00 0.00 0.00 0.00 0.00 0.00 0.04 0.05 0.07 0.10 0.11 0.07 0.05 0.06 0.09 0.07 0.04 0.02 0.00 0.00 0.00 0.00 0.00 0.00 0.00 0.00 0.00 0.00 0.00 0.00 0.02 0.02 0.02 0.02 0.01 0.02 0.02 0.01 0.01 0.01 0.02 0.01 0.01 0.01 0.01 0.03 0.03 0.04
0.00 0.00 0.00 0.00 0.00 0.00 0.00 0.00 0.00 0.00 0.00 0.00 0.00 0.03 0.05 0.04 0.02 0.04 0.08 0.04 0.06 0.09 0.02 0.00 0.00 0.00 0.00 0.00 0.00 0.00 0.00 0.00 0.00 0.00 0.00 0.00 0.00 0.00 0.00 0.01 0.00 0.01 0.02 0.02 0.01 0.02 0.03 0.02 0.02 0.02 0.03 0.04 0.05 0.06
0.00 0.00 0.00 0.00 0.00 0.00 0.00 0.00 0.00 0.00 0.00 0.00 0.01 0.01 0.01 0.02 0.01 0.04 0.04 0.02 0.05 0.06 0.02 0.00 0.00 0.01 0.01 0.00 0.00 0.00 0.00 0.00 0.00 0.00 0.00 0.00 0.00 0.01 0.00 0.01 0.00 0.01 0.01 0.01 0.01 0.02 0.03 0.04 0.04 0.04 0.05 0.05 0.06 0.05
0.00 0.00 0.00 0.00 0.00 0.00 0.00 0.00 0.00 0.00 0.01 0.01 0.01 0.01 0.02 0.01 0.03 0.03 0.01 0.03 0.05 0.04 0.02 0.01 0.00 0.00 0.01 0.01 0.00 0.00 0.00 0.00 0.00 0.00 0.01 0.01 0.01 0.02 0.02 0.02 0.01 0.01 0.00 0.01 0.01 0.01 0.03 0.04 0.04 0.05 0.05 0.05 0.07 0.05
0.00 0.00 0.00 0.00 0.00 0.00 0.00 0.01 0.02 0.01 0.02 0.01 0.01 0.01 0.01 0.03 0.03 0.02 0.04 0.05 0.05 0.04 0.03 0.02 0.01 0.01 0.01 0.00 0.00 0.01 0.00 0.00 0.00 0.01 0.01 0.01 0.01 0.03 0.04 0.04 0.03 0.02 0.02 0.03 0.01 0.01 0.02 0.02 0.03 0.04 0.05 0.05 0.06 0.07
0.00 0.00 0.00 0.01 0.00 0.00 0.00 0.01 0.01 0.01 0.01 0.01 0.02 0.01 0.01 0.02 0.02 0.05 0.06 0.06 0.05 0.04 0.02 0.02 0.01 0.01 0.00 0.00 0.01 0.00 0.00 0.00 0.00 0.01 0.01 0.01 0.01 0.01 0.01 0.04 0.06 0.06 0.02 0.02 0.03 0.02 0.02 0.02 0.02 0.04 0.05 0.06 0.07 0.09
0.01 0.01 0.01 0.01 0.01 0.01 0.01 0.01 0.02 0.02 0.03 0.02 0.01 0.01 0.02 0.02 0.04 0.05 0.05 0.04 0.04 0.04 0.05 0.03 0.02 0.00 0.00 0.00 0.00 0.00 0.01 0.01 0.01 0.01 0.00 0.01 0.00 0.00 0.01 0.03 0.02 0.02 0.01 0.02 0.05 0.07 0.07 0.04 0.03 0.04 0.06 0.06 0.09 0.14
0.00 0.00 0.00 0.01 0.01 0.01 0.02 0.03 0.03 0.05 0.04 0.02 0.03 0.03 0.03 0.02 0.03 0.04 0.05 0.04 0.04 0.05 0.09 0.08 0.08 0.05 0.04 0.03 0.01 0.01 0.01 0.01 0.01 0.01 0.01 0.01 0.02 0.01 0.02 0.03 0.04 0.03 0.02 0.03 0.07 0.10 0.12 0.12 0.08 0.07 0.09 0.09 0.11 0.12
0.01 0.00 0.01 0.01 0.01 0.01 0.03 0.03 0.04 0.04 0.02 0.02 0.03 0.02 0.02 0.02 0.03 0.03 0.03 0.02 0.04 0.05 0.06 0.06 0.06 0.06 0.06 0.04 0.04 0.03 0.01 0.01 0.02 0.03 0.03 0.03 0.03 0.01 0.01 0.01 0.02 0.02 0.03 0.06 0.07 0.12 0.15 0.17 0.18 0.16 0.12 0.12 0.11 0.12
0.00 0.01 0.01 0.01 0.01 0.02 0.03 0.02 0.02 0.01 0.02 0.02 0.03 0.03 0.03 0.03 0.02 0.02 0.01 0.02 0.02 0.04 0.05 0.07 0.06 0.07 0.09 0.07 0.05 0.03 0.03 0.02 0.02 0.02 0.02 0.02 0.01 0.01 0.01 0.01 0.02 0.03 0.06 0.09 0.08 0.09 0.12 0.14 0.12 0.12 0.11 0.10 0.10 0.08
0.01 0.01 0.02 0.02 0.02 0.03 0.01 0.01 0.01 0.02 0.02 0.02 0.02 0.03 0.05 0.04 0.02 0.01 0.01 0.01 0.01 0.02 0.03 0.04 0.06 0.06 0.06 0.06 0.05 0.05 0.04 0.03 0.02 0.02 0.02 0.02 0.03 0.02 0.01 0.02 0.03 0.03 0.05 0.06 0.07 0.09 0.11 0.10 0.13 0.12 0.11 0.11 0.10 0.09
0.00 0.01 0.02 0.03 0.02 0.03 0.06 0.02 0.02 0.02 0.02 0.03 0.03 0.04 0.06 0.05 0.02 0.02 0.02 0.02 0.02 0.02 0.02 0.03 0.06 0.07 0.04 0.05 0.06 0.05 0.07 0.06 0.04 0.04 0.04 0.04 0.03 0.03 0.03 0.04 0.04 0.04 0.04 0.05 0.07 0.09 0.10 0.09 0.10 0.10 0.10 0.09 0.09 0.07

GFSWCAN_prec_precacc24_153.txt.gz
Total_Precipitation_Accumulation
0.34 0.23 0.18 0.16 0.16 0.16 0.16 0.17 0.17 0.18 0.23 0.30 0.33 0.47 0.63 0.68 1.11 0.80 0.57 0.27 0.34 0.40 0.16 0.18 0.31 0.27 0.21 0.18 0.21 0.15 0.28 0.26 0.51 0.45 0.60 0.72 0.49 0.26 0.11 0.03 0.03 0.06 0.18 0.20 0.18 0.27 0.05 0.00 0.00 0.00 0.00 0.00 0.00 0.00
0.57 0.47 0.28 0.18 0.14 0.13 0.14 0.15 0.16 0.16 0.18 0.27 0.32 0.41 0.61 0.75 0.80 0.90 0.45 0.32 0.25 0.32 0.30 0.22 0.38 0.32 0.21 0.22 0.24 0.18 0.17 0.07 0.09 0.19 0.16 0.14 0.24 0.35 0.32 0.20 0.08 0.05 0.02 0.03 0.04 0.05 0.01 0.00 0.00 0.00 0.00 0.00 0.00 0.00
0.56 0.54 0.49 0.29 0.19 0.15 0.13 0.14 0.15 0.15 0.17 0.21 0.31 0.38 0.62 0.74 0.60 0.73 0.35 0.31 0.39 0.40 0.21 0.12 0.26 0.32 0.35 0.24 0.30 0.42 0.13 0.05 0.07 0.02 0.06 0.10 0.07 0.04 0.10 0.09 0.11 0.07 0.05 0.03 0.02 0.00 0.00 0.00 0.00 0.02 0.01 0.00 0.00 0.00
0.51 0.61 0.62 0.44 0.25 0.19 0.16 0.14 0.14 0.15 0.16 0.18 0.30 0.34 0.63 0.77 0.64 0.61 0.31 0.14 0.34 0.33 0.21 0.12 0.04 0.12 0.34 0.37 0.26 0.40 0.39 0.11 0.09 0.12 0.11 0.07 0.06 0.03 0.03 0.01 0.02 0.02 0.02 0.02 0.02 0.00 0.00 0.00 0.00 0.01 0.01 0.01 0.01 0.00
0.31 0.35 0.51 0.58 0.30 0.22 0.17 0.14 0.13 0.13 0.15 0.14 0.30 0.33 0.63 0.90 0.83 0.63 0.19 0.16 0.24 0.27 0.27 0.08 0.06 0.10 0.20 0.43 0.29 0.23 0.28 0.29 0.11 0.11 0.08 0.04 0.02 0.05 0.07 0.04 0.00 0.00 0.00 0.03 0.01 0.00 0.01 0.01 0.00 0.00 0.00 0.00 0.00 0.00
0.23 0.25 0.50 0.58 0.27 0.21 0.16 0.12 0.11 0.13 0.15 0.13 0.35 0.36 0.76 1.16 0.90 0.62 0.89 0.61 0.22 0.16 0.44 0.37 0.10 0.08 0.11 0.18 0.20 0.35 0.33 0.44 0.28 0.17 0.10 0.05 0.02 0.09 0.09 0.03 0.00 0.00 0.00 0.00 0.00 0.00 0.00 0.01 0.00 0.00 0.00 0.00 0.00 0.00
0.24 0.37 0.61 0.42 0.23 0.17 0.10 0.08 0.08 0.11 0.12 0.14 0.42 0.63 1.15 1.17 0.65 0.49 0.42 0.29 0.13 0.22 0.45 0.75 0.38 0.21 0.05 0.09 0.10 0.13 0.23 0.34 0.28 0.22 0.09 0.06 0.06 0.14 0.11 0.03 0.01 0.00 0.00 0.00 0.00 0.00 0.00 0.00 0.00 0.00 0.00 0.00 0.00 0.00
0.38 0.40 0.29 0.22 0.11 0.11 0.10 0.09 0.10 0.12 0.14 0.39 0.72 1.23 1.09 0.84 0.65 0.30 0.09 0.14 0.12 0.35 0.40 0.47 0.37 0.59 0.13 0.17 0.28 0.15 0.24 0.38 0.36 0.23 0.17 0.06 0.10 0.18 0.10 0.00 0.00 0.00 0.00 0.00 0.00 0.00 0.00 0.00 0.00 0.00 0.00 0.00 0.00 0.00
0.19 0.18 0.18 0.11 0.10 0.13 0.11 0.10 0.16 0.15 0.39 0.77 0.97 1.05 0.97 0.84 0.75 0.28 0.16 0.22 0.20 0.37 0.40 0.13 0.06 0.28 0.31 0.17 0.34 0.45 0.26 0.39 0.41 0.28 0.09 0.08 0.12 0.07 0.01 0.00 0.00 0.00 0.00 0.00 0.00 0.00 0.00 0.00 0.00 0.00 0.00 0.00 0.00 0.00
0.14 0.10 0.07 0.09 0.11 0.09 0.10 0.16 0.16 0.38 0.64 0.72 0.89 0.94 1.25 0.65 0.40 0.52 0.81 0.61 0.52 0.42 0.42 0.16 0.03 0.10 0.21 0.38 0.26 0.40 0.34 0.21 0.17 0.14 0.10 0.09 0.02 0.00 0.00 0.00 0.00 0.00 0.00 0.01 0.00 0.01 0.01 0.00 0.00 0.00 0.01 0.01 0.01 0.01
0.07 0.07 0.07 0.06 0.06 0.09 0.11 0.14 0.34 0.45 0.44 0.53 0.57 0.83 0.54 0.43 0.61 0.79 0.76 0.41 0.34 0.26 0.08 0.04 0.02 0.11 0.07 0.20 0.35 0.22 0.20 0.19 0.22 0.14 0.08 0.09 0.01 0.00 0.00 0.00 0.00 0.00 0.01 0.02 0.06 0.06 0.06 0.03 0.01 0.00 0.01 0.03 0.04 0.03
0.06 0.04 0.04 0.05 0.07 0.08 0.11 0.19 0.16 0.14 0.13 0.09 0.16 0.17 0.26 0.37 0.41 0.51 0.34 0.10 0.13 0.05 0.00 0.00 0.02 0.12 0.11 0.13 0.27 0.23 0.14 0.08 0.13 0.20 0.27 0.09 0.03 0.04 0.05 0.07 0.03 0.01 0.02 0.02 0.02 0.01 0.02 0.06 0.04 0.02 0.02 0.04 0.04 0.05
0.06 0.06 0.06 0.06 0.07 0.08 0.07 0.06 0.08 0.06 0.02 0.02 0.06 0.11 0.10 0.19 0.16 0.20 0.11 0.02 0.02 0.01 0.01 0.01 0.09 0.16 0.09 0.10 0.15 0.16 0.15 0.14 0.13 0.11 0.05 0.03 0.05 0.12 0.10 0.11 0.09 0.04 0.01 0.00 0.00 0.00 0.01 0.02 0.01 0.01 0.02 0.03 0.04 0.06
0.05 0.07 0.09 0.11 0.11 0.13 0.11 0.06 0.08 0.08 0.13 0.13 0.07 0.02 0.05 0.04 0.02 0.05 0.09 0.09 0.09 0.05 0.00 0.02 0.08 0.11 0.10 0.05 0.10 0.11 0.11 0.10 0.17 0.11 0.03 0.06 0.06 0.04 0.00 0.00 0.00 0.00 0.00 0.00 0.00 0.00 0.00 0.00 0.00 0.00 0.00 0.01 0.02 0.03
0.03 0.05 0.09 0.11 0.11 0.10 0.06 0.03 0.08 0.15 0.22 0.13 0.06 0.03 0.03 0.08 0.06 0.04 0.03 0.04 0.06 0.08 0.06 0.06 0.11 0.16 0.14 0.09 0.03 0.07 0.05 0.05 0.01 0.02 0.05 0.01 0.02 0.00 0.00 0.00 0.00 0.00 0.00 0.00 0.00 0.00 0.00 0.00 0.00 0.01 0.02 0.03 0.02 0.02
0.02 0.01 0.05 0.11 0.09 0.04 0.02 0.07 0.09 0.09 0.08 0.07 0.04 0.07 0.07 0.05 0.03 0.01 0.00 0.01 0.05 0.17 0.21 0.19 0.14 0.13 0.12 0.06 0.04 0.02 0.02 0.01 0.02 0.02 0.02 0.00 0.00 0.00 0.00 0.00 0.00 0.00 0.00 0.00 0.00 0.01 0.02 0.02 0.02 0.02 0.02 0.03 0.03 0.03
0.00 0.01 0.01 0.02 0.03 0.02 0.02 0.05 0.08 0.02 0.03 0.04 0.14 0.16 0.09 0.08 0.05 0.02 0.00 0.00 0.06 0.17 0.12 0.12 0.09 0.06 0.08 0.06 0.03 0.02 0.01 0.01 0.00 0.01 0.01 0.00 0.00 0.00 0.00 0.00 0.00 0.00 0.00 0.00 0.01 0.01 0.01 0.01 0.02 0.02 0.03 0.03 0.04 0.05
0.10 0.01 0.00 0.00 0.01 0.02 0.02 0.02 0.05 0.04 0.08 0.08 0.18 0.18 0.09 0.10 0.08 0.03 0.01 0.00 0.06 0.12 0.13 0.11 0.13 0.07 0.05 0.05 0.04 0.01 0.00 0.01 0.01 0.01 0.01 0.00 0.00 0.00 0.00 0.00 0.01 0.00 0.00 0.00 0.01 0.00 0.01 0.01 0.01 0.01 0.02 0.03 0.03 0.05
0.02 0.01 0.02 0.02 0.02 0.03 0.02 0.00 0.01 0.02 0.05 0.06 0.09 0.11 0.06 0.07 0.06 0.03 0.00 0.00 0.03 0.20 0.28 0.15 0.18 0.18 0.07 0.03 0.02 0.02 0.01 0.01 0.01 0.01 0.01 0.01 0.00 0.00 0.00 0.01 0.01 0.01 0.01 0.00 0.00 0.00 0.00 0.00 0.00 0.00 0.00 0.01 0.02 0.03
0.00 0.00 0.02 0.02 0.03 0.05 0.01 0.00 0.00 0.01 0.03 0.05 0.08 0.07 0.04 0.10 0.13 0.06 0.04 0.02 0.04 0.13 0.41 0.32 0.11 0.07 0.10 0.04 0.00 0.01 0.01 0.01 0.00 0.01 0.02 0.02 0.02 0.01 0.01 0.01 0.00 0.01 0.01 0.00 0.00 0.00 0.01 0.01 0.01 0.00 0.01 0.01 0.02 0.03
0.00 0.00 0.00 0.01 0.02 0.03 0.01 0.00 0.00 0.00 0.00 0.02 0.08 0.04 0.05 0.11 0.12 0.11 0.10 0.05 0.14 0.12 0.08 0.03 0.04 0.03 0.00 0.00 0.00 0.00 0.00 0.00 0.00 0.00 0.01 0.02 0.02 0.01 0.02 0.01 0.00 0.01 0.00 0.01 0.00 0.01 0.00 0.00 0.00 0.01 0.01 0.02 0.04 0.04
0.00 0.00 0.00 0.01 0.04 0.02 0.00 0.00 0.00 0.00 0.00 0.00 0.04 0.05 0.07 0.10 0.12 0.07 0.05 0.08 0.11 0.05 0.03 0.02 0.00 0.00 0.00 0.00 0.00 0.00 0.00 0.00 0.00 0.00 0.00 0.00 0.02 0.03 0.02 0.02 0.01 0.02 0.01 0.01 0.01 0.01 0.01 0.01 0.00 0.01 0.01 0.03 0.03 0.04
0.00 0.00 0.00 0.00 0.00 0.00 0.00 0.00 0.00 0.00 0.00 0.00 0.00 0.03 0.05 0.04 0.02 0.05 0.08 0.04 0.04 0.07 0.02 0.00 0.00 0.00 0.00 0.00 0.00 0.00 0.00 0.00 0.00 0.00 0.00 0.00 0.00 0.00 0.01 0.01 0.01 0.01 0.02 0.02 0.01 0.01 0.02 0.02 0.01 0.02 0.04 0.04 0.06 0.07
0.00 0.00 0.00 0.00 0.00 0.00 0.00 0.00 0.00 0.00 0.00 0.00 0.01 0.01 0.01 0.02 0.02 0.03 0.03 0.01 0.04 0.06 0.02 0.00 0.00 0.01 0.01 0.00 0.00 0.00 0.00 0.00 0.00 0.00 0.00 0.00 0.01 0.01 0.01 0.01 0.01 0.01 0.01 0.01 0.01 0.02 0.03 0.05 0.05 0.05 0.05 0.05 0.07 0.06
0.00 0.00 0.00 0.00 0.00 0.00 0.00 0.00 0.00 0.00 0.01 0.01 0.01 0.01 0.02 0.01 0.04 0.02 0.01 0.03 0.04 0.04 0.02 0.02 0.02 0.01 0.01 0.01 0.00 0.00 0.00 0.00 0.00 0.00 0.01 0.01 0.01 0.02 0.02 0.02 0.02 0.01 0.00 0.02 0.02 0.02 0.03 0.04 0.05 0.06 0.05 0.06 0.07 0.05
0.00 0.00 0.00 0.00 0.00 0.00 0.00 0.01 0.02 0.02 0.02 0.02 0.01 0.01 0.01 0.03 0.04 0.01 0.06 0.07 0.07 0.06 0.05 0.05 0.04 0.03 0.02 0.00 0.01 0.01 0.00 0.00 0.00 0.01 0.01 0.01 0.01 0.03 0.04 0.04 0.03 0.02 0.01 0.02 0.01 0.01 0.02 0.02 0.03 0.04 0.04 0.04 0.05 0.06
0.00 0.00 0.00 0.01 0.00 0.00 0.00 0.01 0.01 0.01 0.01 0.01 0.02 0.01 0.01 0.02 0.02 0.05 0.07 0.06 0.05 0.05 0.02 0.03 0.03 0.03 0.02 0.01 0.01 0.00 0.00 0.00 0.00 0.01 0.00 0.00 0.01 0.00 0.01 0.04 0.06 0.06 0.02 0.01 0.02 0.02 0.02 0.01 0.02 0.03 0.04 0.05 0.05 0.07
0.01 0.01 0.01 0.01 0.01 0.01 0.01 0.01 0.02 0.02 0.02 0.02 0.02 0.02 0.01 0.02 0.04 0.04 0.04 0.04 0.03 0.04 0.05 0.03 0.02 0.02 0.03 0.03 0.01 0.01 0.00 0.01 0.01 0.01 0.01 0.01 0.00 0.00 0.01 0.02 0.02 0.02 0.01 0.02 0.03 0.05 0.06 0.03 0.02 0.02 0.04 0.05 0.07 0.11
0.00 0.00 0.00 0.01 0.01 0.01 0.02 0.03 0.03 0.04 0.03 0.02 0.03 0.03 0.02 0.01 0.02 0.03 0.04 0.03 0.03 0.04 0.08 0.08 0.08 0.06 0.07 0.07 0.06 0.02 0.01 0.01 0.01 0.02 0.01 0.02 0.02 0.01 0.01 0.03 0.03 0.03 0.03 0.02 0.05 0.08 0.11 0.11 0.06 0.05 0.07 0.07 0.08 0.10
0.01 0.00 0.01 0.01 0.01 0.01 0.03 0.03 0.03 0.04 0.02 0.02 0.03 0.01 0.01 0.01 0.02 0.02 0.02 0.02 0.03 0.04 0.05 0.05 0.05 0.07 0.07 0.06 0.07 0.07 0.04 0.02 0.01 0.03 0.02 0.03 0.03 0.01 0.01 0.01 0.01 0.02 0.04 0.06 0.06 0.10 0.14 0.16 0.18 0.15 0.10 0.10 0.10 0.10
0.00 0.01 0.01 0.01 0.01 0.02 0.03 0.02 0.01 0.01 0.02 0.02 0.03 0.03 0.03 0.03 0.02 0.01 0.01 0.02 0.02 0.03 0.04 0.07 0.06 0.07 0.09 0.09 0.08 0.05 0.05 0.03 0.02 0.02 0.02 0.02 0.01 0.01 0.01 0.01 0.01 0.02 0.05 0.09 0.08 0.09 0.12 0.14 0.13 0.12 0.11 0.10 0.10 0.08
0.01 0.01 0.02 0.01 0.02 0.03 0.01 0.02 0.02 0.02 0.02 0.02 0.02 0.02 0.04 0.03 0.02 0.01 0.01 0.01 0.01 0.02 0.02 0.04 0.05 0.05 0.04 0.06 0.06 0.05 0.04 0.03 0.02 0.01 0.02 0.02 0.03 0.02 0.01 0.01 0.02 0.03 0.04 0.06 0.07 0.08 0.11 0.11 0.14 0.14 0.13 0.13 0.12 0.10
0.00 0.01 0.02 0.03 0.02 0.03 0.08 0.06 0.03 0.02 0.02 0.02 0.02 0.03 0.04 0.05 0.02 0.02 0.02 0.02 0.02 0.02 0.02 0.03 0.06 0.07 0.03 0.04 0.05 0.04 0.05 0.05 0.03 0.03 0.04 0.03 0.03 0.02 0.03 0.03 0.03 0.03 0.04 0.05 0.07 0.09 0.11 0.10 0.12 0.12 0.12 0.11 0.11 0.09